| time (UTC) | temp F | wind direction | speed MPH | gust MPH | rain 1hr in | rain 24hr in | rain mn in | humidity % | barometer mb |
| 20260503205415 | 71 | 307 | 7.0 | 18.0 | 0.00 | 0.00 | 0.00 | 18 | 1015.3 |
| 20260503205409 | 71 | 316 | 6.0 | 18.0 | 0.00 | 0.00 | 0.00 | 18 | 1015.2 |
| 20260503205204 | 72 | 266 | 6.0 | 18.0 | 0.00 | 0.00 | 0.00 | 17 | 1015.3 |
| 20260503205103 | 72 | 292 | 5.0 | 18.0 | 0.00 | 0.00 | 0.00 | 17 | 1015.3 |
| 20260503205003 | 72 | 275 | 4.0 | 10.0 | 0.00 | 0.00 | 0.00 | 17 | 1015.3 |
| 20260503204903 | 72 | 260 | 4.0 | 10.0 | 0.00 | 0.00 | 0.00 | 15 | 1015.4 |
| 20260503204824 | 72 | 309 | 4.0 | 10.0 | 0.00 | 0.00 | 0.00 | 15 | 1015.3 |
| 20260503204803 | 72 | 324 | 4.0 | 10.0 | 0.00 | 0.00 | 0.00 | 15 | 1015.3 |
| 20260503204704 | 73 | 277 | 3.0 | 10.0 | 0.00 | 0.00 | 0.00 | 16 | 1015.3 |
| 20260503204603 | 73 | 255 | 3.0 | 10.0 | 0.00 | 0.00 | 0.00 | 16 | 1015.3 |
| 20260503204510 | 73 | 300 | 2.0 | 10.0 | 0.00 | 0.00 | 0.00 | 14 | 1015.3 |
| 20260503204326 | 74 | 304 | 1.0 | 10.0 | 0.00 | 0.00 | 0.00 | 15 | 1015.3 |
| 20260503204303 | 74 | 295 | 1.0 | 4.0 | 0.00 | 0.00 | 0.00 | 15 | 1015.3 |
| 20260503204204 | 74 | 266 | 1.0 | 7.0 | 0.00 | 0.00 | 0.00 | 16 | 1015.3 |
| 20260503204110 | 74 | 263 | 1.0 | 7.0 | 0.00 | 0.00 | 0.00 | 15 | 1015.3 |
| 20260503203903 | 74 | 144 | 2.0 | 7.0 | 0.00 | 0.00 | 0.00 | 15 | 1015.3 |
| 20260503203825 | 74 | 144 | 2.0 | 7.0 | 0.00 | 0.00 | 0.00 | 15 | 1015.3 |
| 20260503203803 | 74 | 144 | 2.0 | 7.0 | 0.00 | 0.00 | 0.00 | 16 | 1015.3 |
| 20260503203706 | 74 | 144 | 2.0 | 7.0 | 0.00 | 0.00 | 0.00 | 14 | 1015.3 |
| 20260503203458 | 74 | 144 | 2.0 | 7.0 | 0.00 | 0.00 | 0.00 | 14 | 1015.3 |
| 20260503203359 | 75 | 144 | 3.0 | 7.0 | 0.00 | 0.00 | 0.00 | 14 | 1015.2 |
| 20260503203324 | 75 | 144 | 3.0 | 7.0 | 0.00 | 0.00 | 0.00 | 15 | 1015.3 |
| 20260503203300 | 75 | 140 | 3.0 | 7.0 | 0.00 | 0.00 | 0.00 | 14 | 1015.3 |
| 20260503203200 | 75 | 144 | 3.0 | 6.0 | 0.00 | 0.00 | 0.00 | 15 | 1015.3 |
| 20260503203059 | 75 | 170 | 3.0 | 8.0 | 0.00 | 0.00 | 0.00 | 15 | 1015.2 |
| 20260503202959 | 75 | 88 | 3.0 | 8.0 | 0.00 | 0.00 | 0.00 | 13 | 1015.2 |
| 20260503202900 | 76 | 82 | 3.0 | 11.0 | 0.00 | 0.00 | 0.00 | 13 | 1015.2 |
| 20260503202824 | 76 | 82 | 3.0 | 11.0 | 0.00 | 0.00 | 0.00 | 14 | 1015.2 |
| 20260503202759 | 76 | 63 | 3.0 | 11.0 | 0.00 | 0.00 | 0.00 | 14 | 1015.2 |
| 20260503202659 | 76 | 53 | 3.0 | 11.0 | 0.00 | 0.00 | 0.00 | 14 | 1015.2 |
| 20260503202606 | 76 | 145 | 4.0 | 11.0 | 0.00 | 0.00 | 0.00 | 15 | 1015.2 |
| 20260503202432 | 76 | 145 | 4.0 | 11.0 | 0.00 | 0.00 | 0.00 | 14 | 1015.3 |
| 20260503202259 | 76 | 119 | 4.0 | 11.0 | 0.00 | 0.00 | 0.00 | 14 | 1015.2 |
| 20260503202159 | 76 | 86 | 4.0 | 11.0 | 0.00 | 0.00 | 0.00 | 14 | 1015.2 |
| 20260503202059 | 76 | 86 | 4.0 | 11.0 | 0.00 | 0.00 | 0.00 | 14 | 1015.2 |
| 20260503201959 | 76 | 89 | 4.0 | 11.0 | 0.00 | 0.00 | 0.00 | 16 | 1015.2 |
| 20260503201900 | 76 | 126 | 5.0 | 13.0 | 0.00 | 0.00 | 0.00 | 15 | 1015.2 |
| 20260503201826 | 76 | 61 | 5.0 | 13.0 | 0.00 | 0.00 | 0.00 | 15 | 1015.3 |
| 20260503201755 | 76 | 147 | 5.0 | 13.0 | 0.00 | 0.00 | 0.00 | 15 | 1015.3 |
| 20260503201703 | 76 | 141 | 5.0 | 13.0 | 0.00 | 0.00 | 0.00 | 15 | 1015.3 |
| 20260503201456 | 75 | 105 | 4.0 | 13.0 | 0.00 | 0.00 | 0.00 | 18 | 1015.4 |
| 20260503201357 | 75 | 13 | 4.0 | 13.0 | 0.00 | 0.00 | 0.00 | 16 | 1015.3 |
| 20260503201325 | 75 | 13 | 5.0 | 13.0 | 0.00 | 0.00 | 0.00 | 16 | 1015.3 |
| 20260503201254 | 75 | 13 | 5.0 | 13.0 | 0.00 | 0.00 | 0.00 | 16 | 1015.3 |
| 20260503201156 | 75 | 94 | 5.0 | 13.0 | 0.00 | 0.00 | 0.00 | 16 | 1015.4 |
| 20260503201120 | 75 | 119 | 5.0 | 13.0 | 0.00 | 0.00 | 0.00 | 16 | 1015.4 |
| 20260503201006 | 75 | 90 | 5.0 | 11.0 | 0.00 | 0.00 | 0.00 | 14 | 1015.5 |
| 20260503200655 | 75 | 88 | 4.0 | 10.0 | 0.00 | 0.00 | 0.00 | 14 | 1015.5 |
| 20260503200555 | 75 | 155 | 5.0 | 10.0 | 0.00 | 0.00 | 0.00 | 15 | 1015.4 |
| 20260503200456 | 74 | 124 | 5.0 | 13.0 | 0.00 | 0.00 | 0.00 | 16 | 1015.5 |
| 20260503200354 | 74 | 165 | 5.0 | 13.0 | 0.00 | 0.00 | 0.00 | 15 | 1015.6 |
| 20260503200325 | 74 | 175 | 6.0 | 13.0 | 0.00 | 0.00 | 0.00 | 15 | 1015.5 |
| 20260503200255 | 74 | 134 | 6.0 | 14.0 | 0.00 | 0.00 | 0.00 | 15 | 1015.5 |
| 20260503200203 | 74 | 128 | 6.0 | 14.0 | 0.00 | 0.00 | 0.00 | 15 | 1015.5 |
| 20260503195956 | 74 | 109 | 6.0 | 14.0 | 0.00 | 0.00 | 0.00 | 17 | 1015.6 |
| 20260503195852 | 74 | 94 | 7.0 | 14.0 | 0.00 | 0.00 | 0.00 | 17 | 1015.5 |
| 20260503195825 | 73 | 123 | 7.0 | 14.0 | 0.00 | 0.00 | 0.00 | 16 | 1015.5 |
| 20260503195751 | 73 | 128 | 7.0 | 14.0 | 0.00 | 0.00 | 0.00 | 17 | 1015.6 |
| 20260503195651 | 73 | 145 | 7.0 | 14.0 | 0.00 | 0.00 | 0.00 | 17 | 1015.6 |
| 20260503195552 | 73 | 134 | 8.0 | 15.0 | 0.00 | 0.00 | 0.00 | 15 | 1015.6 |
| 20260503195458 | 73 | 149 | 7.0 | 15.0 | 0.00 | 0.00 | 0.00 | 17 | 1015.6 |
| 20260503195325 | 73 | 126 | 7.0 | 15.0 | 0.00 | 0.00 | 0.00 | 15 | 1015.6 |
| 20260503195251 | 73 | 123 | 8.0 | 15.0 | 0.00 | 0.00 | 0.00 | 15 | 1015.8 |
| 20260503195151 | 73 | 158 | 8.0 | 15.0 | 0.00 | 0.00 | 0.00 | 16 | 1015.6 |
| 20260503195049 | 72 | 141 | 8.0 | 15.0 | 0.00 | 0.00 | 0.00 | 16 | 1015.6 |
| 20260503195013 | 72 | 150 | 7.0 | 15.0 | 0.00 | 0.00 | 0.00 | 16 | 1015.8 |
| 20260503194900 | 72 | 159 | 7.0 | 15.0 | 0.00 | 0.00 | 0.00 | 16 | 1015.8 |
| 20260503194548 | 72 | 152 | 7.0 | 15.0 | 0.00 | 0.00 | 0.00 | 17 | 1015.8 |
| 20260503194449 | 72 | 117 | 7.0 | 15.0 | 0.00 | 0.00 | 0.00 | 16 | 1015.8 |
| 20260503194349 | 72 | 113 | 7.0 | 15.0 | 0.00 | 0.00 | 0.00 | 16 | 1015.8 |
| 20260503194324 | 72 | 137 | 6.0 | 15.0 | 0.00 | 0.00 | 0.00 | 16 | 1015.8 |
| 20260503194249 | 72 | 148 | 6.0 | 15.0 | 0.00 | 0.00 | 0.00 | 16 | 1015.8 |
| 20260503194149 | 72 | 165 | 5.0 | 15.0 | 0.00 | 0.00 | 0.00 | 17 | 1015.8 |
| 20260503194049 | 72 | 145 | 5.0 | 15.0 | 0.00 | 0.00 | 0.00 | 17 | 1015.8 |
| 20260503193948 | 72 | 198 | 5.0 | 15.0 | 0.00 | 0.00 | 0.00 | 19 | 1015.8 |
| 20260503193849 | 72 | 149 | 5.0 | 15.0 | 0.00 | 0.00 | 0.00 | 19 | 1015.8 |
| 20260503193825 | 72 | 211 | 4.0 | 15.0 | 0.00 | 0.00 | 0.00 | 19 | 1015.8 |
| 20260503193748 | 72 | 182 | 4.0 | 15.0 | 0.00 | 0.00 | 0.00 | 19 | 1015.8 |
| 20260503193649 | 72 | 177 | 4.0 | 15.0 | 0.00 | 0.00 | 0.00 | 17 | 1015.8 |
| 20260503193548 | 72 | 162 | 3.0 | 15.0 | 0.00 | 0.00 | 0.00 | 17 | 1015.6 |
| 20260503193445 | 72 | 190 | 3.0 | 8.0 | 0.00 | 0.00 | 0.00 | 16 | 1015.6 |
| 20260503193432 | 72 | 111 | 3.0 | 5.0 | 0.00 | 0.00 | 0.00 | 15 | 1015.6 |
| 20260503193243 | 72 | 34 | 3.0 | 6.0 | 0.00 | 0.00 | 0.00 | 16 | 1015.8 |
| 20260503193142 | 72 | 9 | 3.0 | 6.0 | 0.00 | 0.00 | 0.00 | 17 | 1015.8 |
| 20260503193041 | 72 | 340 | 3.0 | 6.0 | 0.00 | 0.00 | 0.00 | 16 | 1015.8 |
| 20260503192944 | 72 | 212 | 3.0 | 6.0 | 0.00 | 0.00 | 0.00 | 16 | 1015.9 |
| 20260503192826 | 72 | 240 | 3.0 | 6.0 | 0.00 | 0.00 | 0.00 | 16 | 1015.9 |
| 20260503192737 | 72 | 252 | 3.0 | 11.0 | 0.00 | 0.00 | 0.00 | 17 | 1015.9 |
| 20260503192647 | 72 | 271 | 3.0 | 11.0 | 0.00 | 0.00 | 0.00 | 16 | 1015.9 |
| 20260503192345 | 72 | 188 | 4.0 | 11.0 | 0.00 | 0.00 | 0.00 | 17 | 1016.0 |
| 20260503192341 | 72 | 207 | 4.0 | 11.0 | 0.00 | 0.00 | 0.00 | 17 | 1016.0 |
| 20260503192154 | 72 | 167 | 4.0 | 11.0 | 0.00 | 0.00 | 0.00 | 19 | 1016.0 |
| 20260503191826 | 72 | 209 | 5.0 | 11.0 | 0.00 | 0.00 | 0.00 | 19 | 1016.0 |
| 20260503191733 | 72 | 189 | 5.0 | 12.0 | 0.00 | 0.00 | 0.00 | 16 | 1016.1 |
| 20260503191634 | 72 | 194 | 5.0 | 12.0 | 0.00 | 0.00 | 0.00 | 17 | 1016.0 |
| 20260503191533 | 72 | 240 | 6.0 | 12.0 | 0.00 | 0.00 | 0.00 | 17 | 1016.1 |
| 20260503191433 | 72 | 236 | 6.0 | 12.0 | 0.00 | 0.00 | 0.00 | 16 | 1016.1 |
| 20260503191333 | 72 | 239 | 6.0 | 12.0 | 0.00 | 0.00 | 0.00 | 16 | 1016.1 |
| 20260503191324 | 72 | 254 | 6.0 | 12.0 | 0.00 | 0.00 | 0.00 | 16 | 1016.1 |
| 20260503191232 | 72 | 280 | 6.0 | 15.0 | 0.00 | 0.00 | 0.00 | 16 | 1016.1 |
| 20260503191140 | 72 | 182 | 6.0 | 15.0 | 0.00 | 0.00 | 0.00 | 15 | 1016.1 |
| 20260503190939 | 72 | 247 | 6.0 | 15.0 | 0.00 | 0.00 | 0.00 | 16 | 1016.1 |
| 20260503190826 | 72 | 232 | 6.0 | 15.0 | 0.00 | 0.00 | 0.00 | 15 | 1016.2 |
| 20260503190735 | 72 | 251 | 6.0 | 15.0 | 0.00 | 0.00 | 0.00 | 15 | 1016.2 |
| 20260503190526 | 72 | 235 | 6.0 | 15.0 | 0.00 | 0.00 | 0.00 | 15 | 1016.1 |
| 20260503190425 | 72 | 286 | 6.0 | 15.0 | 0.00 | 0.00 | 0.00 | 17 | 1016.1 |
| 20260503190323 | 72 | 316 | 6.0 | 15.0 | 0.00 | 0.00 | 0.00 | 14 | 1016.2 |
| 20260503190219 | 73 | 314 | 6.0 | 13.0 | 0.00 | 0.00 | 0.00 | 15 | 1016.1 |
| 20260503190119 | 73 | 309 | 6.0 | 13.0 | 0.00 | 0.00 | 0.00 | 16 | 1016.1 |
| 20260503190019 | 73 | 311 | 6.0 | 13.0 | 0.00 | 0.00 | 0.00 | 15 | 1016.1 |
| 20260503185935 | 73 | 316 | 6.0 | 13.0 | 0.00 | 0.00 | 0.00 | 16 | 1016.1 |
| 20260503185928 | 73 | 5 | 6.0 | 13.0 | 0.00 | 0.00 | 0.00 | 16 | 1016.1 |
| 20260503185616 | 73 | 26 | 7.0 | 15.0 | 0.00 | 0.00 | 0.00 | 15 | 1016.2 |
| 20260503185530 | 73 | 321 | 7.0 | 15.0 | 0.00 | 0.00 | 0.00 | 16 | 1016.1 |
| 20260503185523 | 73 | 32 | 7.0 | 15.0 | 0.00 | 0.00 | 0.00 | 15 | 1016.2 |
| 20260503185208 | 73 | 27 | 7.0 | 15.0 | 0.00 | 0.00 | 0.00 | 16 | 1016.1 |
| 20260503185108 | 73 | 342 | 7.0 | 15.0 | 0.00 | 0.00 | 0.00 | 14 | 1016.2 |
| 20260503185006 | 73 | 325 | 7.0 | 15.0 | 0.00 | 0.00 | 0.00 | 15 | 1016.2 |
| 20260503184918 | 73 | 282 | 7.0 | 15.0 | 0.00 | 0.00 | 0.00 | 14 | 1016.4 |
| 20260503184912 | 73 | 343 | 7.0 | 15.0 | 0.00 | 0.00 | 0.00 | 16 | 1016.4 |
| 20260503184703 | 73 | 348 | 7.0 | 15.0 | 0.00 | 0.00 | 0.00 | 14 | 1016.4 |
| 20260503184602 | 73 | 5 | 7.0 | 15.0 | 0.00 | 0.00 | 0.00 | 15 | 1016.4 |
| 20260503184502 | 73 | 305 | 8.0 | 15.0 | 0.00 | 0.00 | 0.00 | 16 | 1016.4 |
| 20260503184402 | 73 | 327 | 8.0 | 17.0 | 0.00 | 0.00 | 0.00 | 17 | 1016.4 |
| 20260503184259 | 73 | 346 | 8.0 | 17.0 | 0.00 | 0.00 | 0.00 | 18 | 1016.4 |
| 20260503184156 | 73 | 346 | 7.0 | 17.0 | 0.00 | 0.00 | 0.00 | 15 | 1016.5 |
| 20260503184102 | 73 | 295 | 8.0 | 17.0 | 0.00 | 0.00 | 0.00 | 15 | 1016.4 |
| 20260503183854 | 73 | 63 | 8.0 | 17.0 | 0.00 | 0.00 | 0.00 | 14 | 1016.5 |
| 20260503183754 | 73 | 350 | 8.0 | 17.0 | 0.00 | 0.00 | 0.00 | 14 | 1016.6 |
| 20260503183648 | 73 | 12 | 8.0 | 17.0 | 0.00 | 0.00 | 0.00 | 14 | 1016.5 |
| 20260503183549 | 73 | 331 | 8.0 | 17.0 | 0.00 | 0.00 | 0.00 | 14 | 1016.6 |
| 20260503183448 | 73 | 307 | 8.0 | 15.0 | 0.00 | 0.00 | 0.00 | 15 | 1016.5 |
| 20260503183400 | 73 | 321 | 9.0 | 15.0 | 0.00 | 0.00 | 0.00 | 14 | 1016.6 |
| 20260503183248 | 73 | 306 | 10.0 | 18.0 | 0.00 | 0.00 | 0.00 | 15 | 1016.7 |
| 20260503183143 | 74 | 5 | 9.0 | 18.0 | 0.00 | 0.00 | 0.00 | 14 | 1016.6 |
| 20260503183042 | 74 | 248 | 9.0 | 18.0 | 0.00 | 0.00 | 0.00 | 14 | 1016.7 |
| 20260503182944 | 74 | 270 | 9.0 | 18.0 | 0.00 | 0.00 | 0.00 | 15 | 1016.8 |
| 20260503182842 | 74 | 317 | 10.0 | 18.0 | 0.00 | 0.00 | 0.00 | 14 | 1016.8 |
| 20260503182743 | 74 | 328 | 10.0 | 18.0 | 0.00 | 0.00 | 0.00 | 14 | 1016.7 |
| 20260503182636 | 74 | 283 | 10.0 | 18.0 | 0.00 | 0.00 | 0.00 | 15 | 1016.8 |
| 20260503182536 | 75 | 342 | 9.0 | 18.0 | 0.00 | 0.00 | 0.00 | 15 | 1016.7 |
| 20260503182436 | 75 | 304 | 9.0 | 18.0 | 0.00 | 0.00 | 0.00 | 16 | 1016.8 |
| 20260503182336 | 75 | 350 | 9.0 | 18.0 | 0.00 | 0.00 | 0.00 | 14 | 1016.8 |
| 20260503182236 | 76 | 319 | 9.0 | 15.0 | 0.00 | 0.00 | 0.00 | 15 | 1016.8 |
| 20260503182139 | 76 | 5 | 9.0 | 15.0 | 0.00 | 0.00 | 0.00 | 15 | 1016.8 |
| 20260503181939 | 76 | 313 | 8.0 | 15.0 | 0.00 | 0.00 | 0.00 | 19 | 1016.8 |
| 20260503181734 | 75 | 0 | 6.0 | 15.0 | 0.00 | 0.00 | 0.00 | 17 | 1016.8 |
| 20260503181730 | 75 | 5 | 6.0 | 15.0 | 0.00 | 0.00 | 0.00 | 17 | 1016.8 |
| 20260503181627 | 75 | 19 | 6.0 | 15.0 | 0.00 | 0.00 | 0.00 | 17 | 1016.8 |
| 20260503181524 | 75 | 330 | 6.0 | 15.0 | 0.00 | 0.00 | 0.00 | 16 | 1017.0 |
| 20260503181424 | 75 | 328 | 6.0 | 15.0 | 0.00 | 0.00 | 0.00 | 15 | 1017.0 |
| 20260503181324 | 75 | 303 | 5.0 | 15.0 | 0.00 | 0.00 | 0.00 | 15 | 1017.1 |
| 20260503181235 | 75 | 301 | 5.0 | 14.0 | 0.00 | 0.00 | 0.00 | 17 | 1017.2 |
| 20260503181225 | 75 | 261 | 5.0 | 14.0 | 0.00 | 0.00 | 0.00 | 17 | 1017.2 |
| 20260503181120 | 75 | 34 | 5.0 | 12.0 | 0.00 | 0.00 | 0.00 | 19 | 1017.2 |
| 20260503181020 | 75 | 343 | 5.0 | 12.0 | 0.00 | 0.00 | 0.00 | 18 | 1017.2 |
| 20260503180921 | 75 | 279 | 6.0 | 14.0 | 0.00 | 0.00 | 0.00 | 17 | 1017.2 |
| 20260503180822 | 75 | 31 | 7.0 | 14.0 | 0.00 | 0.00 | 0.00 | 18 | 1017.3 |
| 20260503180734 | 75 | 336 | 7.0 | 14.0 | 0.00 | 0.00 | 0.00 | 14 | 1017.3 |
| 20260503180718 | 75 | 346 | 7.0 | 14.0 | 0.00 | 0.00 | 0.00 | 14 | 1017.3 |
| 20260503180617 | 75 | 329 | 7.0 | 14.0 | 0.00 | 0.00 | 0.00 | 15 | 1017.3 |
| 20260503180529 | 75 | 296 | 7.0 | 14.0 | 0.00 | 0.00 | 0.00 | 19 | 1017.3 |
| 20260503180232 | 75 | 289 | 7.0 | 14.0 | 0.00 | 0.00 | 0.00 | 15 | 1017.4 |
| 20260503180213 | 75 | 306 | 7.0 | 14.0 | 0.00 | 0.00 | 0.00 | 15 | 1017.4 |
| 20260503180106 | 74 | 276 | 7.0 | 14.0 | 0.00 | 0.00 | 0.00 | 16 | 1017.4 |
| 20260503180006 | 74 | 271 | 7.0 | 14.0 | 0.00 | 0.00 | 0.00 | 17 | 1017.4 |
| 20260503175907 | 74 | 330 | 7.0 | 14.0 | 0.00 | 0.00 | 0.00 | 15 | 1017.4 |
| 20260503175807 | 74 | 271 | 6.0 | 14.0 | 0.00 | 0.00 | 0.00 | 16 | 1017.4 |
| 20260503175732 | 74 | 249 | 6.0 | 14.0 | 0.00 | 0.00 | 0.00 | 16 | 1017.4 |
| 20260503175705 | 74 | 292 | 6.0 | 14.0 | 0.00 | 0.00 | 0.00 | 16 | 1017.4 |
| 20260503175600 | 74 | 263 | 6.0 | 14.0 | 0.00 | 0.00 | 0.00 | 18 | 1017.5 |
| 20260503175501 | 73 | 247 | 6.0 | 14.0 | 0.00 | 0.00 | 0.00 | 19 | 1017.5 |
| 20260503175400 | 73 | 350 | 7.0 | 14.0 | 0.00 | 0.00 | 0.00 | 16 | 1017.5 |
| 20260503175339 | 73 | 297 | 7.0 | 14.0 | 0.00 | 0.00 | 0.00 | 17 | 1017.5 |
| 20260503175200 | 73 | 244 | 8.0 | 14.0 | 0.00 | 0.00 | 0.00 | 18 | 1017.7 |
| 20260503175101 | 73 | 313 | 8.0 | 14.0 | 0.00 | 0.00 | 0.00 | 19 | 1017.5 |
| 20260503174854 | 72 | 324 | 8.0 | 14.0 | 0.00 | 0.00 | 0.00 | 17 | 1017.7 |
| 20260503174754 | 72 | 288 | 8.0 | 14.0 | 0.00 | 0.00 | 0.00 | 16 | 1017.7 |
| 20260503174728 | 72 | 292 | 8.0 | 14.0 | 0.00 | 0.00 | 0.00 | 16 | 1017.8 |
| 20260503174654 | 72 | 281 | 8.0 | 14.0 | 0.00 | 0.00 | 0.00 | 16 | 1017.8 |
| 20260503174557 | 72 | 249 | 8.0 | 14.0 | 0.00 | 0.00 | 0.00 | 17 | 1017.8 |
| 20260503174440 | 72 | 303 | 8.0 | 14.0 | 0.00 | 0.00 | 0.00 | 16 | 1017.8 |
| 20260503174148 | 72 | 301 | 8.0 | 14.0 | 0.00 | 0.00 | 0.00 | 18 | 1017.8 |
| 20260503174049 | 72 | 284 | 8.0 | 14.0 | 0.00 | 0.00 | 0.00 | 17 | 1017.9 |
| 20260503173843 | 71 | 283 | 9.0 | 14.0 | 0.00 | 0.00 | 0.00 | 20 | 1017.9 |
| 20260503173742 | 71 | 331 | 9.0 | 14.0 | 0.00 | 0.00 | 0.00 | 21 | 1017.9 |
| 20260503173730 | 71 | 240 | 9.0 | 14.0 | 0.00 | 0.00 | 0.00 | 21 | 1017.9 |
| 20260503173642 | 71 | 320 | 10.0 | 14.0 | 0.00 | 0.00 | 0.00 | 19 | 1018.0 |
| 20260503173539 | 71 | 311 | 10.0 | 15.0 | 0.00 | 0.00 | 0.00 | 19 | 1018.0 |
| 20260503173440 | 70 | 319 | 10.0 | 15.0 | 0.00 | 0.00 | 0.00 | 17 | 1018.0 |
| 20260503173338 | 70 | 349 | 10.0 | 15.0 | 0.00 | 0.00 | 0.00 | 18 | 1018.0 |
| 20260503173238 | 70 | 294 | 9.0 | 15.0 | 0.00 | 0.00 | 0.00 | 19 | 1018.0 |
| 20260503173228 | 70 | 302 | 9.0 | 15.0 | 0.00 | 0.00 | 0.00 | 19 | 1018.0 |
| 20260503173136 | 69 | 313 | 9.0 | 15.0 | 0.00 | 0.00 | 0.00 | 17 | 1018.1 |
| 20260503173033 | 69 | 313 | 9.0 | 15.0 | 0.00 | 0.00 | 0.00 | 18 | 1018.3 |
| 20260503172930 | 69 | 325 | 9.0 | 15.0 | 0.00 | 0.00 | 0.00 | 18 | 1018.1 |
| 20260503172830 | 69 | 292 | 8.0 | 15.0 | 0.00 | 0.00 | 0.00 | 17 | 1018.1 |
| 20260503172730 | 69 | 320 | 8.0 | 15.0 | 0.00 | 0.00 | 0.00 | 17 | 1018.3 |
| 20260503172726 | 69 | 304 | 8.0 | 15.0 | 0.00 | 0.00 | 0.00 | 17 | 1018.3 |
| 20260503172632 | 69 | 303 | 7.0 | 14.0 | 0.00 | 0.00 | 0.00 | 17 | 1018.3 |
| 20260503172425 | 69 | 289 | 7.0 | 14.0 | 0.00 | 0.00 | 0.00 | 18 | 1018.4 |
| 20260503172324 | 69 | 290 | 6.0 | 13.0 | 0.00 | 0.00 | 0.00 | 19 | 1018.3 |
| 20260503172228 | 69 | 285 | 6.0 | 13.0 | 0.00 | 0.00 | 0.00 | 20 | 1018.3 |
| 20260503172224 | 69 | 255 | 6.0 | 13.0 | 0.00 | 0.00 | 0.00 | 20 | 1018.3 |
| 20260503172124 | 69 | 270 | 5.0 | 13.0 | 0.00 | 0.00 | 0.00 | 18 | 1018.3 |
| 20260503172021 | 68 | 280 | 5.0 | 13.0 | 0.00 | 0.00 | 0.00 | 19 | 1018.3 |
| 20260503171920 | 68 | 297 | 5.0 | 12.0 | 0.00 | 0.00 | 0.00 | 19 | 1018.4 |
| 20260503171820 | 68 | 263 | 4.0 | 12.0 | 0.00 | 0.00 | 0.00 | 19 | 1018.4 |
| 20260503171729 | 68 | 280 | 4.0 | 10.0 | 0.00 | 0.00 | 0.00 | 20 | 1018.4 |
| 20260503171724 | 68 | 277 | 4.0 | 10.0 | 0.00 | 0.00 | 0.00 | 20 | 1018.4 |
| 20260503171517 | 68 | 306 | 4.0 | 9.0 | 0.00 | 0.00 | 0.00 | 20 | 1018.4 |
| 20260503171417 | 68 | 293 | 4.0 | 9.0 | 0.00 | 0.00 | 0.00 | 23 | 1018.5 |
| 20260503171316 | 68 | 24 | 4.0 | 9.0 | 0.00 | 0.00 | 0.00 | 19 | 1018.4 |
| 20260503171227 | 68 | 89 | 4.0 | 9.0 | 0.00 | 0.00 | 0.00 | 20 | 1018.4 |
| 20260503171223 | 68 | 141 | 4.0 | 9.0 | 0.00 | 0.00 | 0.00 | 20 | 1018.4 |
| 20260503171016 | 68 | 20 | 4.0 | 9.0 | 0.00 | 0.00 | 0.00 | 22 | 1018.5 |
| 20260503170916 | 68 | 346 | 3.0 | 9.0 | 0.00 | 0.00 | 0.00 | 19 | 1018.5 |
| 20260503170816 | 68 | 167 | 3.0 | 9.0 | 0.00 | 0.00 | 0.00 | 20 | 1018.5 |
| 20260503170729 | 68 | 167 | 4.0 | 9.0 | 0.00 | 0.00 | 0.00 | 20 | 1018.5 |
| 20260503170415 | 68 | 64 | 3.0 | 7.0 | 0.00 | 0.00 | 0.00 | 20 | 1018.5 |
| 20260503170315 | 68 | 57 | 3.0 | 7.0 | 0.00 | 0.00 | 0.00 | 21 | 1018.5 |
| 20260503170226 | 68 | 82 | 3.0 | 8.0 | 0.00 | 0.00 | 0.00 | 24 | 1018.5 |
| 20260503170219 | 67 | 78 | 3.0 | 9.0 | 0.00 | 0.00 | 0.00 | 24 | 1018.5 |
| 20260503160200 | 67 | 233 | 1.0 | 5.0 | 0.00 | 0.00 | 0.00 | 21 | 1018.7 |
| 20260503160121 | 67 | 244 | 1.0 | 6.0 | 0.00 | 0.00 | 0.00 | 21 | 1018.7 |
| 20260503150958 | 62 | 227 | 1.0 | 5.0 | 0.00 | 0.00 | 0.00 | 28 | 1019.1 |
| 20260503150858 | 62 | 227 | 2.0 | 5.0 | 0.00 | 0.00 | 0.00 | 26 | 1019.1 |
| 20260503150759 | 62 | 225 | 2.0 | 5.0 | 0.00 | 0.00 | 0.00 | 25 | 1019.2 |
| 20260503150658 | 62 | 215 | 2.0 | 5.0 | 0.00 | 0.00 | 0.00 | 25 | 1019.2 |
| 20260503150552 | 62 | 216 | 1.0 | 5.0 | 0.00 | 0.00 | 0.00 | 27 | 1019.2 |
| 20260503150517 | 62 | 138 | 1.0 | 4.0 | 0.00 | 0.00 | 0.00 | 25 | 1019.1 |
| 20260503150452 | 62 | 143 | 1.0 | 3.0 | 0.00 | 0.00 | 0.00 | 25 | 1019.1 |
| 20260503150353 | 62 | 225 | 1.0 | 4.0 | 0.00 | 0.00 | 0.00 | 25 | 1019.1 |
| 20260503150253 | 62 | 225 | 2.0 | 4.0 | 0.00 | 0.00 | 0.00 | 25 | 1019.2 |
| 20260503150152 | 62 | 225 | 2.0 | 4.0 | 0.00 | 0.00 | 0.00 | 24 | 1019.3 |
| 20260503150117 | 62 | 225 | 3.0 | 5.0 | 0.00 | 0.00 | 0.00 | 25 | 1019.3 |
| 20260503140239 | 59 | 255 | 7.0 | 17.0 | 0.00 | 0.00 | 0.00 | 26 | 1019.7 |
| 20260503140140 | 59 | 229 | 7.0 | 17.0 | 0.00 | 0.00 | 0.00 | 27 | 1019.7 |
| 20260503131340 | 54 | 242 | 5.0 | 13.0 | 0.00 | 0.00 | 0.00 | 30 | 1019.2 |
| 20260503131304 | 54 | 254 | 5.0 | 13.0 | 0.00 | 0.00 | 0.00 | 30 | 1019.2 |
| 20260503131240 | 54 | 248 | 5.0 | 13.0 | 0.00 | 0.00 | 0.00 | 31 | 1019.3 |
| 20260503131141 | 54 | 313 | 4.0 | 10.0 | 0.00 | 0.00 | 0.00 | 31 | 1019.2 |
| 20260503131039 | 54 | 259 | 5.0 | 10.0 | 0.00 | 0.00 | 0.00 | 32 | 1019.3 |
| 20260503130940 | 53 | 285 | 5.0 | 13.0 | 0.00 | 0.00 | 0.00 | 32 | 1019.2 |
| 20260503130834 | 53 | 289 | 5.0 | 13.0 | 0.00 | 0.00 | 0.00 | 33 | 1019.3 |
| 20260503130757 | 53 | 319 | 5.0 | 13.0 | 0.00 | 0.00 | 0.00 | 33 | 1019.2 |
| 20260503130734 | 53 | 323 | 5.0 | 13.0 | 0.00 | 0.00 | 0.00 | 32 | 1019.2 |
| 20260503130641 | 53 | 217 | 5.0 | 13.0 | 0.00 | 0.00 | 0.00 | 32 | 1019.2 |
| 20260503130454 | 53 | 294 | 5.0 | 13.0 | 0.00 | 0.00 | 0.00 | 33 | 1019.2 |
| 20260503130446 | 53 | 292 | 5.0 | 13.0 | 0.00 | 0.00 | 0.00 | 33 | 1019.2 |
| 20260503120218 | 50 | 173 | 4.0 | 10.0 | 0.00 | 0.00 | 0.00 | 35 | 1018.5 |
| 20260503120143 | 50 | 169 | 4.0 | 10.0 | 0.00 | 0.00 | 0.00 | 35 | 1018.6 |
| 20260503120116 | 50 | 228 | 4.0 | 10.0 | 0.00 | 0.00 | 0.00 | 35 | 1018.6 |
| 20260503110730 | 49 | 247 | 4.0 | 10.0 | 0.00 | 0.00 | 0.00 | 38 | 1018.6 |
| 20260503110644 | 49 | 248 | 4.0 | 9.0 | 0.00 | 0.00 | 0.00 | 38 | 1018.6 |
| 20260503110630 | 49 | 234 | 4.0 | 9.0 | 0.00 | 0.00 | 0.00 | 37 | 1018.6 |
| 20260503110538 | 49 | 218 | 4.0 | 9.0 | 0.00 | 0.00 | 0.00 | 38 | 1018.6 |
| 20260503110330 | 50 | 202 | 4.0 | 7.0 | 0.00 | 0.00 | 0.00 | 37 | 1018.6 |
| 20260503110229 | 50 | 179 | 4.0 | 7.0 | 0.00 | 0.00 | 0.00 | 37 | 1018.6 |
| 20260503110143 | 50 | 205 | 4.0 | 8.0 | 0.00 | 0.00 | 0.00 | 37 | 1018.6 |
| 20260503110129 | 50 | 209 | 4.0 | 8.0 | 0.00 | 0.00 | 0.00 | 37 | 1018.6 |
| 20260503100243 | 51 | 229 | 5.0 | 10.0 | 0.00 | 0.00 | 0.00 | 35 | 1018.6 |
| 20260503100119 | 51 | 217 | 5.0 | 10.0 | 0.00 | 0.00 | 0.00 | 35 | 1018.6 |
| 20260503090507 | 53 | 215 | 4.0 | 11.0 | 0.00 | 0.00 | 0.00 | 32 | 1019.0 |
| 20260503090407 | 53 | 221 | 3.0 | 11.0 | 0.00 | 0.00 | 0.00 | 31 | 1019.0 |
| 20260503090309 | 53 | 208 | 3.0 | 7.0 | 0.00 | 0.00 | 0.00 | 31 | 1019.0 |
| 20260503090208 | 53 | 241 | 3.0 | 5.0 | 0.00 | 0.00 | 0.00 | 31 | 1019.0 |
| 20260503090109 | 53 | 218 | 3.0 | 5.0 | 0.00 | 0.00 | 0.00 | 31 | 1019.0 |
| 20260503081634 | 57 | 232 | 7.0 | 12.0 | 0.00 | 0.00 | 0.00 | 27 | 1018.8 |
| 20260503081541 | 57 | 231 | 6.0 | 12.0 | 0.00 | 0.00 | 0.00 | 27 | 1019.0 |
| 20260503081442 | 57 | 238 | 6.0 | 12.0 | 0.00 | 0.00 | 0.00 | 27 | 1018.8 |
| 20260503081235 | 57 | 252 | 7.0 | 12.0 | 0.00 | 0.00 | 0.00 | 27 | 1018.8 |
| 20260503081140 | 57 | 270 | 7.0 | 12.0 | 0.00 | 0.00 | 0.00 | 27 | 1019.0 |
| 20260503080927 | 57 | 292 | 7.0 | 13.0 | 0.00 | 0.00 | 0.00 | 26 | 1019.0 |
| 20260503080828 | 57 | 292 | 7.0 | 13.0 | 0.00 | 0.00 | 0.00 | 26 | 1019.0 |
| 20260503080728 | 57 | 255 | 7.0 | 13.0 | 0.00 | 0.00 | 0.00 | 26 | 1019.0 |
| 20260503080634 | 57 | 301 | 8.0 | 13.0 | 0.00 | 0.00 | 0.00 | 26 | 1019.0 |
| 20260503080627 | 57 | 236 | 8.0 | 13.0 | 0.00 | 0.00 | 0.00 | 26 | 1019.0 |
| 20260503080527 | 57 | 255 | 8.0 | 13.0 | 0.00 | 0.00 | 0.00 | 26 | 1019.0 |
| 20260503080422 | 57 | 259 | 8.0 | 13.0 | 0.00 | 0.00 | 0.00 | 26 | 1019.0 |
| 20260503080322 | 57 | 267 | 8.0 | 13.0 | 0.00 | 0.00 | 0.00 | 26 | 1019.0 |
| 20260503080234 | 57 | 238 | 8.0 | 13.0 | 0.00 | 0.00 | 0.00 | 26 | 1019.0 |
| 20260503080226 | 57 | 254 | 8.0 | 13.0 | 0.00 | 0.00 | 0.00 | 26 | 1019.0 |
| 20260503072900 | 54 | 281 | 4.0 | 10.0 | 0.00 | 0.00 | 0.00 | 27 | 1019.2 |
| 20260503072759 | 54 | 279 | 4.0 | 10.0 | 0.00 | 0.00 | 0.00 | 27 | 1019.2 |
| 20260503072658 | 54 | 265 | 4.0 | 9.0 | 0.00 | 0.00 | 0.00 | 28 | 1019.2 |
| 20260503072615 | 54 | 288 | 4.0 | 9.0 | 0.00 | 0.00 | 0.00 | 28 | 1019.2 |
| 20260503072604 | 54 | 292 | 4.0 | 9.0 | 0.00 | 0.00 | 0.00 | 28 | 1019.2 |
| 20260503072357 | 54 | 265 | 5.0 | 9.0 | 0.00 | 0.00 | 0.00 | 28 | 1019.2 |
| 20260503072256 | 54 | 302 | 6.0 | 10.0 | 0.00 | 0.00 | 0.00 | 27 | 1019.2 |
| 20260503072108 | 53 | 306 | 6.0 | 10.0 | 0.00 | 0.00 | 0.00 | 27 | 1019.2 |
| 20260503072048 | 53 | 286 | 6.0 | 10.0 | 0.00 | 0.00 | 0.00 | 27 | 1019.2 |
| 20260503071947 | 53 | 303 | 6.0 | 10.0 | 0.00 | 0.00 | 0.00 | 27 | 1019.3 |
| 20260503071848 | 53 | 296 | 6.0 | 10.0 | 0.00 | 0.00 | 0.00 | 27 | 1019.3 |
| 20260503071747 | 53 | 276 | 6.0 | 10.0 | 0.00 | 0.00 | 0.00 | 27 | 1019.3 |
| 20260503071653 | 52 | 273 | 6.0 | 10.0 | 0.00 | 0.00 | 0.00 | 26 | 1019.3 |
| 20260503071646 | 52 | 290 | 6.0 | 10.0 | 0.00 | 0.00 | 0.00 | 26 | 1019.3 |
| 20260503071442 | 51 | 272 | 5.0 | 10.0 | 0.00 | 0.00 | 0.00 | 26 | 1019.3 |
| 20260503071343 | 51 | 297 | 4.0 | 10.0 | 0.00 | 0.00 | 0.00 | 26 | 1019.3 |
| 20260503071241 | 51 | 304 | 4.0 | 9.0 | 0.00 | 0.00 | 0.00 | 26 | 1019.3 |
| 20260503071136 | 51 | 254 | 3.0 | 9.0 | 0.00 | 0.00 | 0.00 | 25 | 1019.3 |
| 20260503071103 | 51 | 253 | 3.0 | 9.0 | 0.00 | 0.00 | 0.00 | 25 | 1019.3 |
| 20260503071036 | 51 | 307 | 3.0 | 8.0 | 0.00 | 0.00 | 0.00 | 24 | 1019.3 |
| 20260503070943 | 51 | 321 | 3.0 | 7.0 | 0.00 | 0.00 | 0.00 | 24 | 1019.3 |
| 20260503070737 | 51 | 259 | 2.0 | 7.0 | 0.00 | 0.00 | 0.00 | 23 | 1019.3 |
| 20260503070630 | 51 | 268 | 3.0 | 6.0 | 0.00 | 0.00 | 0.00 | 23 | 1019.3 |
| 20260503070603 | 51 | 247 | 3.0 | 6.0 | 0.00 | 0.00 | 0.00 | 23 | 1019.3 |
| 20260503070530 | 51 | 240 | 3.0 | 7.0 | 0.00 | 0.00 | 0.00 | 23 | 1019.3 |
| 20260503070431 | 51 | 248 | 3.0 | 7.0 | 0.00 | 0.00 | 0.00 | 23 | 1019.3 |
| 20260503070336 | 51 | 244 | 3.0 | 7.0 | 0.00 | 0.00 | 0.00 | 23 | 1019.3 |
| 20260503070135 | 51 | 202 | 4.0 | 7.0 | 0.00 | 0.00 | 0.00 | 23 | 1019.3 |
| 20260503070128 | 51 | 219 | 4.0 | 7.0 | 0.00 | 0.00 | 0.00 | 23 | 1019.3 |
| 20260503060218 | 51 | 232 | 3.0 | 5.0 | 0.00 | 0.00 | 0.00 | 22 | 1019.6 |
| 20260503055055 | 51 | 242 | 3.0 | 7.0 | 0.00 | 0.00 | 0.00 | 21 | 1019.6 |
| 20260503055012 | 51 | 248 | 3.0 | 6.0 | 0.00 | 0.00 | 0.00 | 22 | 1019.6 |
| 20260503054913 | 51 | 261 | 3.0 | 7.0 | 0.00 | 0.00 | 0.00 | 22 | 1019.7 |
| 20260503054813 | 51 | 262 | 4.0 | 7.0 | 0.00 | 0.00 | 0.00 | 22 | 1019.6 |
| 20260503054712 | 51 | 250 | 4.0 | 8.0 | 0.00 | 0.00 | 0.00 | 21 | 1019.7 |
| 20260503054612 | 51 | 263 | 4.0 | 8.0 | 0.00 | 0.00 | 0.00 | 21 | 1019.7 |
| 20260503054556 | 51 | 264 | 4.0 | 8.0 | 0.00 | 0.00 | 0.00 | 21 | 1019.7 |
| 20260503054520 | 51 | 252 | 4.0 | 8.0 | 0.00 | 0.00 | 0.00 | 22 | 1019.7 |
| 20260503054310 | 51 | 264 | 4.0 | 8.0 | 0.00 | 0.00 | 0.00 | 22 | 1019.7 |
| 20260503054211 | 51 | 275 | 4.0 | 8.0 | 0.00 | 0.00 | 0.00 | 22 | 1019.7 |
| 20260503054104 | 51 | 247 | 4.0 | 8.0 | 0.00 | 0.00 | 0.00 | 22 | 1019.7 |
| 20260503054056 | 51 | 246 | 4.0 | 8.0 | 0.00 | 0.00 | 0.00 | 22 | 1019.7 |
| 20260503054005 | 51 | 259 | 4.0 | 8.0 | 0.00 | 0.00 | 0.00 | 22 | 1019.7 |
| 20260503053904 | 51 | 252 | 4.0 | 8.0 | 0.00 | 0.00 | 0.00 | 22 | 1019.7 |
| 20260503053804 | 51 | 240 | 4.0 | 8.0 | 0.00 | 0.00 | 0.00 | 22 | 1019.7 |
| 20260503053702 | 51 | 252 | 3.0 | 7.0 | 0.00 | 0.00 | 0.00 | 21 | 1019.6 |
| 20260503053557 | 52 | 263 | 3.0 | 7.0 | 0.00 | 0.00 | 0.00 | 21 | 1019.6 |
| 20260503053457 | 52 | 259 | 3.0 | 6.0 | 0.00 | 0.00 | 0.00 | 22 | 1019.7 |
| 20260503053358 | 52 | 254 | 3.0 | 6.0 | 0.00 | 0.00 | 0.00 | 22 | 1019.6 |
| 20260503053256 | 52 | 246 | 3.0 | 6.0 | 0.00 | 0.00 | 0.00 | 22 | 1019.7 |
| 20260503053155 | 52 | 246 | 3.0 | 6.0 | 0.00 | 0.00 | 0.00 | 22 | 1019.6 |
| 20260503053107 | 52 | 228 | 3.0 | 6.0 | 0.00 | 0.00 | 0.00 | 22 | 1019.6 |
| 20260503053103 | 52 | 228 | 3.0 | 6.0 | 0.00 | 0.00 | 0.00 | 22 | 1019.7 |
| 20260503052748 | 52 | 261 | 3.0 | 7.0 | 0.00 | 0.00 | 0.00 | 22 | 1019.6 |
| 20260503052655 | 52 | 261 | 3.0 | 7.0 | 0.00 | 0.00 | 0.00 | 21 | 1019.6 |
| 20260503052648 | 52 | 262 | 3.0 | 7.0 | 0.00 | 0.00 | 0.00 | 21 | 1019.6 |
| 20260503052442 | 52 | 259 | 3.0 | 7.0 | 0.00 | 0.00 | 0.00 | 21 | 1019.6 |
| 20260503052404 | 52 | 252 | 3.0 | 7.0 | 0.00 | 0.00 | 0.00 | 21 | 1019.6 |
| 20260503052250 | 52 | 250 | 3.0 | 7.0 | 0.00 | 0.00 | 0.00 | 21 | 1019.6 |
| 20260503051944 | 52 | 244 | 2.0 | 7.0 | 0.00 | 0.00 | 0.00 | 21 | 1019.6 |
| 20260503051736 | 53 | 268 | 2.0 | 4.0 | 0.00 | 0.00 | 0.00 | 21 | 1019.6 |
| 20260503051635 | 53 | 268 | 2.0 | 4.0 | 0.00 | 0.00 | 0.00 | 21 | 1019.6 |
| 20260503051533 | 53 | 268 | 2.0 | 4.0 | 0.00 | 0.00 | 0.00 | 21 | 1019.4 |
| 20260503051439 | 53 | 268 | 2.0 | 4.0 | 0.00 | 0.00 | 0.00 | 21 | 1019.6 |
| 20260503051229 | 53 | 290 | 3.0 | 6.0 | 0.00 | 0.00 | 0.00 | 21 | 1019.6 |
| 20260503051130 | 53 | 290 | 3.0 | 6.0 | 0.00 | 0.00 | 0.00 | 21 | 1019.6 |
| 20260503051049 | 53 | 289 | 3.0 | 6.0 | 0.00 | 0.00 | 0.00 | 21 | 1019.6 |
| 20260503051031 | 53 | 290 | 3.0 | 6.0 | 0.00 | 0.00 | 0.00 | 21 | 1019.6 |
| 20260503050929 | 53 | 289 | 3.0 | 6.0 | 0.00 | 0.00 | 0.00 | 21 | 1019.6 |
| 20260503050855 | 53 | 290 | 3.0 | 7.0 | 0.00 | 0.00 | 0.00 | 21 | 1019.6 |
| 20260503050633 | 53 | 290 | 4.0 | 7.0 | 0.00 | 0.00 | 0.00 | 21 | 1019.6 |
| 20260503050322 | 53 | 269 | 4.0 | 8.0 | 0.00 | 0.00 | 0.00 | 22 | 1019.6 |
| 20260503050302 | 53 | 276 | 4.0 | 8.0 | 0.00 | 0.00 | 0.00 | 22 | 1019.7 |
| 20260503050020 | 53 | 273 | 4.0 | 8.0 | 0.00 | 0.00 | 0.00 | 22 | 1019.7 |
| 20260503045918 | 52 | 279 | 4.0 | 8.0 | 0.00 | 0.00 | 0.00 | 23 | 1019.7 |
| 20260503045814 | 52 | 294 | 4.0 | 8.0 | 0.00 | 0.00 | 0.00 | 23 | 1019.7 |
| 20260503045714 | 52 | 300 | 4.0 | 8.0 | 0.00 | 0.00 | 0.00 | 23 | 1019.6 |
| 20260503045615 | 51 | 291 | 3.0 | 8.0 | 0.00 | 0.00 | 0.00 | 23 | 1019.7 |
| 20260503045548 | 51 | 297 | 3.0 | 8.0 | 0.00 | 0.00 | 0.00 | 23 | 1019.7 |
| 20260503045515 | 51 | 298 | 3.0 | 8.0 | 0.00 | 0.00 | 0.00 | 23 | 1019.7 |
| 20260503045413 | 51 | 303 | 3.0 | 8.0 | 0.00 | 0.00 | 0.00 | 23 | 1019.7 |
| 20260503045315 | 51 | 291 | 3.0 | 8.0 | 0.00 | 0.00 | 0.00 | 23 | 1019.7 |
| 20260503045222 | 51 | 311 | 3.0 | 8.0 | 0.00 | 0.00 | 0.00 | 23 | 1019.7 |
| 20260503045045 | 51 | 290 | 2.0 | 7.0 | 0.00 | 0.00 | 0.00 | 23 | 1019.7 |
| 20260503045014 | 51 | 255 | 2.0 | 4.0 | 0.00 | 0.00 | 0.00 | 23 | 1019.7 |
| 20260503044913 | 51 | 254 | 2.0 | 4.0 | 0.00 | 0.00 | 0.00 | 22 | 1019.7 |
| 20260503044810 | 51 | 254 | 2.0 | 4.0 | 0.00 | 0.00 | 0.00 | 22 | 1019.7 |
| 20260503044710 | 51 | 254 | 2.0 | 4.0 | 0.00 | 0.00 | 0.00 | 22 | 1019.8 |
| 20260503044610 | 51 | 254 | 2.0 | 4.0 | 0.00 | 0.00 | 0.00 | 22 | 1019.8 |
| 20260503044544 | 51 | 254 | 3.0 | 4.0 | 0.00 | 0.00 | 0.00 | 22 | 1019.8 |
| 20260503044506 | 51 | 254 | 3.0 | 4.0 | 0.00 | 0.00 | 0.00 | 22 | 1019.8 |
| 20260503044405 | 51 | 254 | 3.0 | 5.0 | 0.00 | 0.00 | 0.00 | 22 | 1019.7 |
| 20260503044304 | 51 | 254 | 3.0 | 5.0 | 0.00 | 0.00 | 0.00 | 22 | 1019.7 |
| 20260503044205 | 51 | 254 | 3.0 | 5.0 | 0.00 | 0.00 | 0.00 | 22 | 1019.8 |
| 20260503044103 | 51 | 254 | 3.0 | 5.0 | 0.00 | 0.00 | 0.00 | 22 | 1019.7 |
| 20260503044040 | 51 | 254 | 3.0 | 5.0 | 0.00 | 0.00 | 0.00 | 22 | 1019.7 |
| 20260503044002 | 51 | 254 | 3.0 | 5.0 | 0.00 | 0.00 | 0.00 | 22 | 1019.7 |
| 20260503043859 | 51 | 254 | 3.0 | 5.0 | 0.00 | 0.00 | 0.00 | 22 | 1019.7 |
| 20260503043802 | 51 | 254 | 3.0 | 5.0 | 0.00 | 0.00 | 0.00 | 22 | 1019.7 |
| 20260503043554 | 51 | 248 | 3.0 | 5.0 | 0.00 | 0.00 | 0.00 | 22 | 1019.7 |
| 20260503043534 | 51 | 246 | 3.0 | 5.0 | 0.00 | 0.00 | 0.00 | 22 | 1019.7 |
| 20260503043455 | 51 | 239 | 3.0 | 5.0 | 0.00 | 0.00 | 0.00 | 23 | 1019.7 |
| 20260503043353 | 51 | 240 | 3.0 | 5.0 | 0.00 | 0.00 | 0.00 | 23 | 1019.8 |
| 20260503043248 | 51 | 251 | 3.0 | 5.0 | 0.00 | 0.00 | 0.00 | 22 | 1019.8 |
| 20260503043155 | 51 | 250 | 3.0 | 5.0 | 0.00 | 0.00 | 0.00 | 23 | 1019.8 |
| 20260503043027 | 51 | 234 | 3.0 | 5.0 | 0.00 | 0.00 | 0.00 | 23 | 1019.8 |
| 20260503042948 | 51 | 256 | 2.0 | 5.0 | 0.00 | 0.00 | 0.00 | 23 | 1019.8 |
| 20260503042900 | 51 | 243 | 2.0 | 5.0 | 0.00 | 0.00 | 0.00 | 23 | 1019.8 |
| 20260503042628 | 51 | 250 | 2.0 | 4.0 | 0.00 | 0.00 | 0.00 | 24 | 1019.8 |
| 20260503042448 | 51 | 319 | 2.0 | 4.0 | 0.00 | 0.00 | 0.00 | 24 | 1019.8 |
| 20260503042237 | 51 | 319 | 2.0 | 3.0 | 0.00 | 0.00 | 0.00 | 24 | 1019.8 |
| 20260503042138 | 51 | 319 | 2.0 | 3.0 | 0.00 | 0.00 | 0.00 | 24 | 1019.8 |
| 20260503042015 | 51 | 319 | 2.0 | 3.0 | 0.00 | 0.00 | 0.00 | 24 | 1019.7 |
| 20260503041936 | 51 | 319 | 2.0 | 3.0 | 0.00 | 0.00 | 0.00 | 24 | 1019.7 |
| 20260503041835 | 51 | 319 | 2.0 | 3.0 | 0.00 | 0.00 | 0.00 | 24 | 1019.7 |
| 20260503041730 | 51 | 319 | 2.0 | 3.0 | 0.00 | 0.00 | 0.00 | 24 | 1019.8 |
| 20260503041630 | 51 | 319 | 2.0 | 3.0 | 0.00 | 0.00 | 0.00 | 23 | 1019.8 |
| 20260503041535 | 51 | 319 | 2.0 | 3.0 | 0.00 | 0.00 | 0.00 | 23 | 1019.8 |
| 20260503041329 | 51 | 319 | 1.0 | 3.0 | 0.00 | 0.00 | 0.00 | 23 | 1019.8 |
| 20260503041229 | 51 | 319 | 1.0 | 3.0 | 0.00 | 0.00 | 0.00 | 23 | 1019.8 |
| 20260503041128 | 51 | 319 | 1.0 | 3.0 | 0.00 | 0.00 | 0.00 | 23 | 1019.8 |
| 20260503041003 | 51 | 319 | 1.0 | 3.0 | 0.00 | 0.00 | 0.00 | 23 | 1019.8 |
| 20260503040926 | 51 | 319 | 1.0 | 3.0 | 0.00 | 0.00 | 0.00 | 23 | 1019.8 |
| 20260503040825 | 51 | 319 | 1.0 | 3.0 | 0.00 | 0.00 | 0.00 | 23 | 1019.7 |
| 20260503040618 | 51 | 319 | 1.0 | 3.0 | 0.00 | 0.00 | 0.00 | 23 | 1019.8 |
| 20260503040517 | 52 | 319 | 0.0 | 3.0 | 0.00 | 0.00 | 0.00 | 24 | 1019.8 |
| 20260503040457 | 52 | 319 | 0.0 | 3.0 | 0.00 | 0.00 | 0.00 | 24 | 1019.8 |
| 20260503040418 | 52 | 319 | 0.0 | 2.0 | 0.00 | 0.00 | 0.00 | 24 | 1019.7 |
| 20260503040324 | 52 | 319 | 0.0 | 2.0 | 0.00 | 0.00 | 0.00 | 24 | 1019.8 |
| 20260503040124 | 52 | 319 | 0.0 | 2.0 | 0.00 | 0.00 | 0.00 | 24 | 1019.8 |
| 20260503035952 | 52 | 319 | 1.0 | 3.0 | 0.00 | 0.00 | 0.00 | 24 | 1019.7 |
| 20260503035914 | 52 | 319 | 1.0 | 4.0 | 0.00 | 0.00 | 0.00 | 24 | 1019.7 |
| 20260503035811 | 52 | 319 | 1.0 | 4.0 | 0.00 | 0.00 | 0.00 | 24 | 1019.7 |
| 20260503035708 | 53 | 319 | 1.0 | 4.0 | 0.00 | 0.00 | 0.00 | 24 | 1019.7 |
| 20260503035616 | 53 | 319 | 1.0 | 4.0 | 0.00 | 0.00 | 0.00 | 23 | 1019.8 |
| 20260503035445 | 53 | 319 | 2.0 | 4.0 | 0.00 | 0.00 | 0.00 | 23 | 1019.7 |
| 20260503035408 | 53 | 319 | 2.0 | 4.0 | 0.00 | 0.00 | 0.00 | 22 | 1019.7 |
| 20260503035305 | 53 | 319 | 1.0 | 4.0 | 0.00 | 0.00 | 0.00 | 22 | 1019.7 |
| 20260503035200 | 53 | 319 | 1.0 | 4.0 | 0.00 | 0.00 | 0.00 | 21 | 1019.7 |
| 20260503035100 | 53 | 319 | 1.0 | 4.0 | 0.00 | 0.00 | 0.00 | 21 | 1019.7 |
| 20260503034939 | 53 | 319 | 1.0 | 4.0 | 0.00 | 0.00 | 0.00 | 21 | 1019.7 |
| 20260503034900 | 54 | 319 | 1.0 | 4.0 | 0.00 | 0.00 | 0.00 | 21 | 1019.7 |
| 20260503034759 | 54 | 319 | 1.0 | 3.0 | 0.00 | 0.00 | 0.00 | 21 | 1019.7 |
| 20260503034700 | 54 | 319 | 0.0 | 3.0 | 0.00 | 0.00 | 0.00 | 20 | 1019.7 |
| 20260503034558 | 54 | 319 | 0.0 | 3.0 | 0.00 | 0.00 | 0.00 | 21 | 1019.6 |
| 20260503034434 | 54 | 319 | 0.0 | 2.0 | 0.00 | 0.00 | 0.00 | 20 | 1019.7 |
| 20260503034400 | 54 | 319 | 0.0 | 2.0 | 0.00 | 0.00 | 0.00 | 20 | 1019.7 |
| 20260503034150 | 55 | 319 | 1.0 | 4.0 | 0.00 | 0.00 | 0.00 | 20 | 1019.6 |
| 20260503034050 | 55 | 319 | 1.0 | 4.0 | 0.00 | 0.00 | 0.00 | 20 | 1019.6 |
| 20260503033928 | 55 | 319 | 1.0 | 4.0 | 0.00 | 0.00 | 0.00 | 20 | 1019.7 |
| 20260503033851 | 55 | 319 | 1.0 | 4.0 | 0.00 | 0.00 | 0.00 | 20 | 1019.7 |
| 20260503033748 | 55 | 319 | 1.0 | 4.0 | 0.00 | 0.00 | 0.00 | 20 | 1019.6 |
| 20260503033644 | 55 | 319 | 1.0 | 4.0 | 0.00 | 0.00 | 0.00 | 20 | 1019.6 |
| 20260503033544 | 55 | 319 | 1.0 | 4.0 | 0.00 | 0.00 | 0.00 | 20 | 1019.7 |
| 20260503033424 | 55 | 319 | 1.0 | 4.0 | 0.00 | 0.00 | 0.00 | 19 | 1019.7 |
| 20260503033341 | 56 | 319 | 0.0 | 4.0 | 0.00 | 0.00 | 0.00 | 19 | 1019.7 |
| 20260503033242 | 56 | 319 | 0.0 | 2.0 | 0.00 | 0.00 | 0.00 | 19 | 1019.6 |
| 20260503033141 | 56 | 319 | 0.0 | 2.0 | 0.00 | 0.00 | 0.00 | 19 | 1019.6 |
| 20260503033039 | 56 | 319 | 0.0 | 2.0 | 0.00 | 0.00 | 0.00 | 19 | 1019.6 |
| 20260503032924 | 56 | 319 | 1.0 | 2.0 | 0.00 | 0.00 | 0.00 | 18 | 1019.6 |
| 20260503032836 | 56 | 319 | 1.0 | 5.0 | 0.00 | 0.00 | 0.00 | 18 | 1019.7 |
| 20260503032736 | 56 | 319 | 1.0 | 5.0 | 0.00 | 0.00 | 0.00 | 18 | 1019.7 |
| 20260503032640 | 57 | 319 | 1.0 | 5.0 | 0.00 | 0.00 | 0.00 | 18 | 1019.7 |
| 20260503032423 | 57 | 319 | 1.0 | 5.0 | 0.00 | 0.00 | 0.00 | 18 | 1019.7 |
| 20260503032336 | 57 | 319 | 1.0 | 5.0 | 0.00 | 0.00 | 0.00 | 18 | 1019.6 |
| 20260503032125 | 57 | 319 | 2.0 | 5.0 | 0.00 | 0.00 | 0.00 | 18 | 1019.7 |
| 20260503032024 | 57 | 319 | 2.0 | 5.0 | 0.00 | 0.00 | 0.00 | 17 | 1019.6 |
| 20260503031924 | 57 | 319 | 2.0 | 5.0 | 0.00 | 0.00 | 0.00 | 17 | 1019.6 |
| 20260503031824 | 57 | 319 | 2.0 | 5.0 | 0.00 | 0.00 | 0.00 | 18 | 1019.7 |
| 20260503031723 | 57 | 319 | 2.0 | 5.0 | 0.00 | 0.00 | 0.00 | 18 | 1019.6 |
| 20260503031647 | 57 | 319 | 2.0 | 5.0 | 0.00 | 0.00 | 0.00 | 18 | 1019.6 |
| 20260503031428 | 57 | 319 | 3.0 | 5.0 | 0.00 | 0.00 | 0.00 | 18 | 1019.7 |
| 20260503031217 | 57 | 319 | 3.0 | 5.0 | 0.00 | 0.00 | 0.00 | 18 | 1019.6 |
| 20260503031137 | 57 | 319 | 3.0 | 5.0 | 0.00 | 0.00 | 0.00 | 18 | 1019.6 |
| 20260503031024 | 57 | 345 | 3.0 | 5.0 | 0.00 | 0.00 | 0.00 | 18 | 1019.6 |
| 20260503030711 | 56 | 317 | 2.0 | 5.0 | 0.00 | 0.00 | 0.00 | 19 | 1019.6 |
| 20260503030608 | 56 | 317 | 2.0 | 5.0 | 0.00 | 0.00 | 0.00 | 19 | 1019.6 |
| 20260503030508 | 56 | 317 | 2.0 | 5.0 | 0.00 | 0.00 | 0.00 | 19 | 1019.6 |
| 20260503030408 | 56 | 317 | 2.0 | 5.0 | 0.00 | 0.00 | 0.00 | 19 | 1019.6 |
| 20260503030307 | 56 | 317 | 2.0 | 5.0 | 0.00 | 0.00 | 0.00 | 18 | 1019.6 |
| 20260503030205 | 56 | 317 | 2.0 | 5.0 | 0.00 | 0.00 | 0.00 | 18 | 1019.6 |
| 20260503030000 | 56 | 317 | 2.0 | 5.0 | 0.00 | 0.00 | 0.00 | 18 | 1019.6 |
| 20260503025917 | 56 | 314 | 2.0 | 5.0 | 0.00 | 0.00 | 0.00 | 18 | 1019.6 |
| 20260503025900 | 56 | 314 | 2.0 | 5.0 | 0.00 | 0.00 | 0.00 | 18 | 1019.6 |
| 20260503025801 | 56 | 341 | 2.0 | 3.0 | 0.00 | 0.00 | 0.00 | 17 | 1019.4 |
| 20260503025657 | 56 | 341 | 2.0 | 3.0 | 0.00 | 0.00 | 0.00 | 17 | 1019.4 |
| 20260503025555 | 56 | 341 | 2.0 | 3.0 | 0.00 | 0.00 | 0.00 | 17 | 1019.4 |
| 20260503025453 | 56 | 341 | 2.0 | 3.0 | 0.00 | 0.00 | 0.00 | 17 | 1019.4 |
| 20260503025417 | 56 | 313 | 2.0 | 3.0 | 0.00 | 0.00 | 0.00 | 17 | 1019.4 |
| 20260503025353 | 56 | 313 | 2.0 | 3.0 | 0.00 | 0.00 | 0.00 | 17 | 1019.4 |
| 20260503025253 | 56 | 313 | 2.0 | 3.0 | 0.00 | 0.00 | 0.00 | 17 | 1019.4 |
| 20260503025151 | 56 | 313 | 2.0 | 3.0 | 0.00 | 0.00 | 0.00 | 17 | 1019.4 |
| 20260503025052 | 56 | 313 | 2.0 | 3.0 | 0.00 | 0.00 | 0.00 | 17 | 1019.4 |
| 20260503024919 | 56 | 313 | 2.0 | 3.0 | 0.00 | 0.00 | 0.00 | 17 | 1019.4 |
| 20260503024846 | 56 | 313 | 2.0 | 3.0 | 0.00 | 0.00 | 0.00 | 17 | 1019.4 |
| 20260503024745 | 56 | 313 | 2.0 | 3.0 | 0.00 | 0.00 | 0.00 | 17 | 1019.4 |
| 20260503024646 | 56 | 313 | 2.0 | 3.0 | 0.00 | 0.00 | 0.00 | 17 | 1019.4 |
| 20260503024546 | 56 | 313 | 2.0 | 3.0 | 0.00 | 0.00 | 0.00 | 17 | 1019.4 |
| 20260503024418 | 56 | 313 | 2.0 | 3.0 | 0.00 | 0.00 | 0.00 | 17 | 1019.4 |
| 20260503024347 | 56 | 313 | 2.0 | 3.0 | 0.00 | 0.00 | 0.00 | 17 | 1019.4 |
| 20260503024139 | 56 | 313 | 2.0 | 3.0 | 0.00 | 0.00 | 0.00 | 18 | 1019.4 |
| 20260503024038 | 56 | 310 | 2.0 | 3.0 | 0.00 | 0.00 | 0.00 | 18 | 1019.4 |
| 20260503023938 | 56 | 310 | 2.0 | 3.0 | 0.00 | 0.00 | 0.00 | 18 | 1019.4 |
| 20260503023916 | 56 | 88 | 2.0 | 3.0 | 0.00 | 0.00 | 0.00 | 19 | 1019.4 |
| 20260503023835 | 56 | 88 | 1.0 | 3.0 | 0.00 | 0.00 | 0.00 | 19 | 1019.4 |
| 20260503023737 | 56 | 89 | 1.0 | 3.0 | 0.00 | 0.00 | 0.00 | 19 | 1019.3 |
| 20260503023634 | 56 | 89 | 1.0 | 3.0 | 0.00 | 0.00 | 0.00 | 20 | 1019.3 |
| 20260503023535 | 56 | 89 | 1.0 | 3.0 | 0.00 | 0.00 | 0.00 | 20 | 1019.3 |
| 20260503023442 | 56 | 88 | 1.0 | 3.0 | 0.00 | 0.00 | 0.00 | 20 | 1019.3 |
| 20260503023436 | 56 | 89 | 1.0 | 3.0 | 0.00 | 0.00 | 0.00 | 20 | 1019.3 |
| 20260503023232 | 56 | 88 | 1.0 | 3.0 | 0.00 | 0.00 | 0.00 | 21 | 1019.3 |
| 20260503023132 | 56 | 89 | 1.0 | 2.0 | 0.00 | 0.00 | 0.00 | 21 | 1019.3 |
| 20260503023032 | 56 | 89 | 1.0 | 2.0 | 0.00 | 0.00 | 0.00 | 21 | 1019.3 |
| 20260503022929 | 57 | 88 | 1.0 | 2.0 | 0.00 | 0.00 | 0.00 | 20 | 1019.3 |
| 20260503022911 | 57 | 89 | 1.0 | 2.0 | 0.00 | 0.00 | 0.00 | 20 | 1019.3 |
| 20260503022829 | 57 | 88 | 1.0 | 2.0 | 0.00 | 0.00 | 0.00 | 20 | 1019.2 |
| 20260503022737 | 57 | 88 | 1.0 | 2.0 | 0.00 | 0.00 | 0.00 | 20 | 1019.3 |
| 20260503022423 | 57 | 89 | 1.0 | 2.0 | 0.00 | 0.00 | 0.00 | 18 | 1019.2 |
| 20260503022410 | 58 | 88 | 1.0 | 2.0 | 0.00 | 0.00 | 0.00 | 18 | 1019.2 |
| 20260503022337 | 58 | 89 | 1.0 | 2.0 | 0.00 | 0.00 | 0.00 | 18 | 1019.2 |
| 20260503022019 | 58 | 89 | 1.0 | 2.0 | 0.00 | 0.00 | 0.00 | 17 | 1019.1 |
| 20260503021918 | 58 | 89 | 1.0 | 2.0 | 0.00 | 0.00 | 0.00 | 17 | 1019.1 |
| 20260503021907 | 58 | 88 | 1.0 | 2.0 | 0.00 | 0.00 | 0.00 | 17 | 1019.1 |
| 20260503021815 | 58 | 89 | 1.0 | 2.0 | 0.00 | 0.00 | 0.00 | 17 | 1019.1 |
| 20260503021724 | 58 | 89 | 1.0 | 2.0 | 0.00 | 0.00 | 0.00 | 17 | 1019.1 |
| 20260503021515 | 59 | 89 | 1.0 | 3.0 | 0.00 | 0.00 | 0.00 | 16 | 1019.1 |
| 20260503021427 | 59 | 88 | 1.0 | 3.0 | 0.00 | 0.00 | 0.00 | 16 | 1019.1 |
| 20260503021420 | 59 | 89 | 1.0 | 3.0 | 0.00 | 0.00 | 0.00 | 16 | 1019.1 |
| 20260503021214 | 59 | 89 | 1.0 | 3.0 | 0.00 | 0.00 | 0.00 | 16 | 1019.1 |
| 20260503021121 | 60 | 89 | 1.0 | 3.0 | 0.00 | 0.00 | 0.00 | 16 | 1019.0 |
| 20260503020913 | 60 | 89 | 1.0 | 3.0 | 0.00 | 0.00 | 0.00 | 16 | 1019.0 |
| 20260503020903 | 60 | 88 | 1.0 | 3.0 | 0.00 | 0.00 | 0.00 | 16 | 1019.0 |
| 20260503020813 | 60 | 89 | 1.0 | 3.0 | 0.00 | 0.00 | 0.00 | 15 | 1019.0 |
| 20260503020711 | 60 | 88 | 1.0 | 3.0 | 0.00 | 0.00 | 0.00 | 15 | 1019.0 |
| 20260503020612 | 60 | 89 | 1.0 | 3.0 | 0.00 | 0.00 | 0.00 | 15 | 1019.0 |
| 20260503020510 | 61 | 88 | 1.0 | 3.0 | 0.00 | 0.00 | 0.00 | 15 | 1019.0 |
| 20260503020411 | 61 | 89 | 2.0 | 3.0 | 0.00 | 0.00 | 0.00 | 15 | 1019.0 |
| 20260503020404 | 61 | 88 | 2.0 | 3.0 | 0.00 | 0.00 | 0.00 | 15 | 1019.0 |
| 20260503020313 | 61 | 89 | 2.0 | 3.0 | 0.00 | 0.00 | 0.00 | 15 | 1019.0 |
| 20260503020124 | 61 | 89 | 2.0 | 3.0 | 0.00 | 0.00 | 0.00 | 15 | 1019.0 |
| 20260503020118 | 62 | 89 | 2.0 | 4.0 | 0.00 | 0.00 | 0.00 | 14 | 1019.0 |
| 20260503015800 | 62 | 89 | 2.0 | 4.0 | 0.00 | 0.00 | 0.00 | 14 | 1019.0 |
| 20260503015700 | 62 | 88 | 2.0 | 4.0 | 0.00 | 0.00 | 0.00 | 14 | 1019.0 |
| 20260503015600 | 62 | 88 | 2.0 | 4.0 | 0.00 | 0.00 | 0.00 | 14 | 1019.0 |
| 20260503015459 | 62 | 88 | 2.0 | 4.0 | 0.00 | 0.00 | 0.00 | 14 | 1019.0 |
| 20260503015422 | 62 | 89 | 2.0 | 6.0 | 0.00 | 0.00 | 0.00 | 14 | 1019.0 |
| 20260503014853 | 63 | 89 | 2.0 | 6.0 | 0.00 | 0.00 | 0.00 | 13 | 1019.0 |
| 20260503014749 | 63 | 89 | 2.0 | 6.0 | 0.00 | 0.00 | 0.00 | 13 | 1018.8 |
| 20260503014648 | 63 | 88 | 2.0 | 6.0 | 0.00 | 0.00 | 0.00 | 13 | 1018.8 |
| 20260503014547 | 64 | 88 | 2.0 | 6.0 | 0.00 | 0.00 | 0.00 | 13 | 1018.8 |
| 20260503014447 | 64 | 89 | 2.0 | 6.0 | 0.00 | 0.00 | 0.00 | 12 | 1018.8 |
| 20260503014347 | 64 | 89 | 2.0 | 6.0 | 0.00 | 0.00 | 0.00 | 12 | 1018.8 |
| 20260503014248 | 64 | 89 | 2.0 | 6.0 | 0.00 | 0.00 | 0.00 | 12 | 1018.8 |
| 20260503014145 | 64 | 89 | 2.0 | 6.0 | 0.00 | 0.00 | 0.00 | 12 | 1019.0 |
| 20260503014045 | 64 | 88 | 3.0 | 6.0 | 0.00 | 0.00 | 0.00 | 12 | 1018.8 |
| 20260503013952 | 65 | 88 | 3.0 | 7.0 | 0.00 | 0.00 | 0.00 | 12 | 1018.8 |
| 20260503013841 | 65 | 89 | 3.0 | 7.0 | 0.00 | 0.00 | 0.00 | 12 | 1018.8 |
| 20260503013740 | 65 | 89 | 3.0 | 7.0 | 0.00 | 0.00 | 0.00 | 12 | 1018.8 |
| 20260503013640 | 65 | 80 | 3.0 | 7.0 | 0.00 | 0.00 | 0.00 | 12 | 1018.8 |
| 20260503013539 | 65 | 80 | 3.0 | 7.0 | 0.00 | 0.00 | 0.00 | 12 | 1018.8 |
| 20260503013437 | 65 | 80 | 3.0 | 7.0 | 0.00 | 0.00 | 0.00 | 12 | 1018.8 |
| 20260503013335 | 65 | 71 | 4.0 | 7.0 | 0.00 | 0.00 | 0.00 | 12 | 1018.8 |
| 20260503013301 | 65 | 80 | 4.0 | 7.0 | 0.00 | 0.00 | 0.00 | 12 | 1018.8 |
| 20260503013254 | 65 | 67 | 4.0 | 7.0 | 0.00 | 0.00 | 0.00 | 11 | 1018.8 |
| 20260503012734 | 65 | 78 | 3.0 | 7.0 | 0.00 | 0.00 | 0.00 | 12 | 1018.8 |
| 20260503012529 | 66 | 82 | 3.0 | 7.0 | 0.00 | 0.00 | 0.00 | 12 | 1018.8 |
| 20260503012425 | 66 | 85 | 3.0 | 7.0 | 0.00 | 0.00 | 0.00 | 12 | 1018.8 |
| 20260503012324 | 66 | 94 | 3.0 | 7.0 | 0.00 | 0.00 | 0.00 | 12 | 1018.8 |
| 20260503012219 | 66 | 94 | 3.0 | 7.0 | 0.00 | 0.00 | 0.00 | 11 | 1018.7 |
| 20260503012119 | 66 | 107 | 2.0 | 7.0 | 0.00 | 0.00 | 0.00 | 11 | 1018.8 |
| 20260503012023 | 66 | 109 | 2.0 | 7.0 | 0.00 | 0.00 | 0.00 | 11 | 1018.7 |
| 20260503011919 | 67 | 110 | 2.0 | 4.0 | 0.00 | 0.00 | 0.00 | 11 | 1018.8 |
| 20260503011817 | 67 | 122 | 2.0 | 6.0 | 0.00 | 0.00 | 0.00 | 11 | 1018.7 |
| 20260503011719 | 67 | 105 | 2.0 | 6.0 | 0.00 | 0.00 | 0.00 | 11 | 1018.7 |
| 20260503011511 | 67 | 105 | 3.0 | 7.0 | 0.00 | 0.00 | 0.00 | 11 | 1018.7 |
| 20260503011411 | 67 | 105 | 3.0 | 8.0 | 0.00 | 0.00 | 0.00 | 11 | 1018.7 |
| 20260503011312 | 67 | 105 | 3.0 | 8.0 | 0.00 | 0.00 | 0.00 | 11 | 1018.7 |
| 20260503011208 | 68 | 72 | 3.0 | 8.0 | 0.00 | 0.00 | 0.00 | 11 | 1018.7 |
| 20260503011109 | 68 | 79 | 3.0 | 8.0 | 0.00 | 0.00 | 0.00 | 11 | 1018.7 |
| 20260503011008 | 68 | 92 | 3.0 | 8.0 | 0.00 | 0.00 | 0.00 | 11 | 1018.7 |
| 20260503010908 | 68 | 96 | 3.0 | 8.0 | 0.00 | 0.00 | 0.00 | 10 | 1018.7 |
| 20260503010805 | 68 | 118 | 3.0 | 8.0 | 0.00 | 0.00 | 0.00 | 10 | 1018.7 |
| 20260503010700 | 68 | 104 | 4.0 | 8.0 | 0.00 | 0.00 | 0.00 | 11 | 1018.7 |
| 20260503010601 | 68 | 95 | 3.0 | 8.0 | 0.00 | 0.00 | 0.00 | 10 | 1018.7 |
| 20260503010500 | 69 | 107 | 3.0 | 8.0 | 0.00 | 0.00 | 0.00 | 11 | 1018.7 |
| 20260503010400 | 69 | 129 | 3.0 | 8.0 | 0.00 | 0.00 | 0.00 | 11 | 1018.7 |
| 20260503010259 | 69 | 92 | 3.0 | 8.0 | 0.00 | 0.00 | 0.00 | 11 | 1018.6 |
| 20260503010156 | 69 | 132 | 3.0 | 8.0 | 0.00 | 0.00 | 0.00 | 11 | 1018.7 |
| 20260503010056 | 69 | 132 | 3.0 | 8.0 | 0.00 | 0.00 | 0.00 | 10 | 1018.7 |
| 20260503005956 | 69 | 74 | 3.0 | 8.0 | 0.00 | 0.00 | 0.00 | 10 | 1018.7 |
| 20260503005856 | 69 | 64 | 3.0 | 8.0 | 0.00 | 0.00 | 0.00 | 10 | 1018.6 |
| 20260503005753 | 70 | 35 | 3.0 | 7.0 | 0.00 | 0.00 | 0.00 | 11 | 1018.7 |
| 20260503005648 | 70 | 74 | 3.0 | 7.0 | 0.00 | 0.00 | 0.00 | 10 | 1018.7 |
| 20260503005548 | 70 | 75 | 3.0 | 5.0 | 0.00 | 0.00 | 0.00 | 10 | 1018.7 |
| 20260503005448 | 70 | 83 | 3.0 | 6.0 | 0.00 | 0.00 | 0.00 | 9 | 1018.7 |
| 20260503005348 | 70 | 70 | 3.0 | 6.0 | 0.00 | 0.00 | 0.00 | 10 | 1018.7 |
| 20260503005247 | 70 | 85 | 3.0 | 6.0 | 0.00 | 0.00 | 0.00 | 10 | 1018.6 |
| 20260503005142 | 70 | 111 | 3.0 | 6.0 | 0.00 | 0.00 | 0.00 | 10 | 1018.7 |
| 20260503005041 | 70 | 80 | 3.0 | 9.0 | 0.00 | 0.00 | 0.00 | 10 | 1018.7 |
| 20260503004942 | 70 | 80 | 4.0 | 9.0 | 0.00 | 0.00 | 0.00 | 11 | 1018.7 |
| 20260503004841 | 70 | 80 | 4.0 | 10.0 | 0.00 | 0.00 | 0.00 | 10 | 1018.7 |
| 20260503004741 | 70 | 86 | 5.0 | 10.0 | 0.00 | 0.00 | 0.00 | 9 | 1018.7 |
| 20260503004635 | 70 | 85 | 5.0 | 10.0 | 0.00 | 0.00 | 0.00 | 10 | 1018.7 |
| 20260503004536 | 70 | 86 | 5.0 | 10.0 | 0.00 | 0.00 | 0.00 | 10 | 1018.7 |
| 20260503004453 | 69 | 91 | 5.0 | 10.0 | 0.00 | 0.00 | 0.00 | 10 | 1018.7 |
| 20260503004446 | 69 | 86 | 5.0 | 10.0 | 0.00 | 0.00 | 0.00 | 10 | 1018.7 |
| 20260503004129 | 69 | 80 | 5.0 | 10.0 | 0.00 | 0.00 | 0.00 | 9 | 1018.7 |
| 20260503004029 | 69 | 59 | 5.0 | 10.0 | 0.00 | 0.00 | 0.00 | 10 | 1018.7 |
| 20260503003931 | 69 | 80 | 5.0 | 10.0 | 0.00 | 0.00 | 0.00 | 10 | 1018.8 |
| 20260503003830 | 69 | 94 | 4.0 | 9.0 | 0.00 | 0.00 | 0.00 | 10 | 1018.7 |
| 20260503003730 | 69 | 88 | 4.0 | 9.0 | 0.00 | 0.00 | 0.00 | 10 | 1018.7 |
| 20260503003625 | 69 | 114 | 4.0 | 9.0 | 0.00 | 0.00 | 0.00 | 10 | 1018.7 |
| 20260503003525 | 70 | 100 | 4.0 | 9.0 | 0.00 | 0.00 | 0.00 | 9 | 1018.8 |
| 20260503003426 | 69 | 74 | 4.0 | 9.0 | 0.00 | 0.00 | 0.00 | 12 | 1018.8 |
| 20260503003326 | 69 | 40 | 4.0 | 9.0 | 0.00 | 0.00 | 0.00 | 11 | 1018.7 |
| 20260503003224 | 69 | 107 | 4.0 | 9.0 | 0.00 | 0.00 | 0.00 | 12 | 1018.7 |
| 20260503003124 | 69 | 78 | 4.0 | 9.0 | 0.00 | 0.00 | 0.00 | 11 | 1018.8 |
| 20260503003023 | 69 | 98 | 4.0 | 9.0 | 0.00 | 0.00 | 0.00 | 10 | 1018.7 |
| 20260503002922 | 69 | 51 | 4.0 | 10.0 | 0.00 | 0.00 | 0.00 | 10 | 1018.8 |
| 20260503002819 | 69 | 111 | 5.0 | 10.0 | 0.00 | 0.00 | 0.00 | 10 | 1018.7 |
| 20260503002719 | 69 | 92 | 5.0 | 10.0 | 0.00 | 0.00 | 0.00 | 10 | 1018.8 |
| 20260503002511 | 69 | 91 | 5.0 | 10.0 | 0.00 | 0.00 | 0.00 | 9 | 1018.7 |
| 20260503002413 | 69 | 53 | 5.0 | 10.0 | 0.00 | 0.00 | 0.00 | 10 | 1018.7 |
| 20260503002323 | 69 | 43 | 5.0 | 10.0 | 0.00 | 0.00 | 0.00 | 10 | 1018.8 |
| 20260503002316 | 68 | 57 | 5.0 | 10.0 | 0.00 | 0.00 | 0.00 | 10 | 1018.8 |
| 20260503002108 | 68 | 107 | 5.0 | 10.0 | 0.00 | 0.00 | 0.00 | 12 | 1018.8 |
| 20260503002006 | 68 | 103 | 4.0 | 10.0 | 0.00 | 0.00 | 0.00 | 10 | 1018.8 |
| 20260503001906 | 68 | 80 | 4.0 | 10.0 | 0.00 | 0.00 | 0.00 | 13 | 1018.8 |
| 20260503001817 | 68 | 112 | 4.0 | 10.0 | 0.00 | 0.00 | 0.00 | 12 | 1018.8 |
| 20260503001809 | 68 | 123 | 4.0 | 9.0 | 0.00 | 0.00 | 0.00 | 11 | 1018.8 |
| 20260503001559 | 68 | 94 | 4.0 | 9.0 | 0.00 | 0.00 | 0.00 | 11 | 1018.8 |
| 20260503001459 | 67 | 66 | 4.0 | 9.0 | 0.00 | 0.00 | 0.00 | 13 | 1018.8 |
| 20260503001400 | 67 | 129 | 5.0 | 10.0 | 0.00 | 0.00 | 0.00 | 11 | 1018.8 |
| 20260503001300 | 67 | 91 | 5.0 | 11.0 | 0.00 | 0.00 | 0.00 | 11 | 1018.8 |
| 20260503001200 | 67 | 30 | 6.0 | 11.0 | 0.00 | 0.00 | 0.00 | 11 | 1018.8 |
| 20260503001054 | 67 | 86 | 6.0 | 11.0 | 0.00 | 0.00 | 0.00 | 15 | 1018.8 |
| 20260503000954 | 67 | 63 | 6.0 | 11.0 | 0.00 | 0.00 | 0.00 | 18 | 1019.0 |
| 20260503000853 | 67 | 94 | 6.0 | 11.0 | 0.00 | 0.00 | 0.00 | 17 | 1018.8 |
| 20260503000754 | 67 | 98 | 5.0 | 11.0 | 0.00 | 0.00 | 0.00 | 15 | 1018.8 |
| 20260503000654 | 68 | 52 | 5.0 | 11.0 | 0.00 | 0.00 | 0.00 | 15 | 1018.8 |
| 20260503000547 | 68 | 71 | 5.0 | 11.0 | 0.00 | 0.00 | 0.00 | 14 | 1018.8 |
| 20260503000449 | 68 | 59 | 5.0 | 11.0 | 0.00 | 0.00 | 0.00 | 15 | 1018.8 |
| 20260503000354 | 69 | 73 | 4.0 | 11.0 | 0.00 | 0.00 | 0.00 | 15 | 1018.8 |
| 20260503000147 | 70 | 88 | 4.0 | 11.0 | 0.00 | 0.00 | 0.00 | 16 | 1019.0 |
| 20260503000044 | 70 | 80 | 4.0 | 10.0 | 0.00 | 0.00 | 0.00 | 18 | 1018.8 |
| 20260502235944 | 71 | 105 | 4.0 | 10.0 | 0.00 | 0.00 | 0.00 | 29 | 1018.8 |
| 20260502235852 | 71 | 76 | 4.0 | 10.0 | 0.00 | 0.00 | 0.00 | 29 | 1019.0 |
| 20260502235641 | 71 | 115 | 4.0 | 10.0 | 0.00 | 0.00 | 0.00 | 13 | 1018.8 |
| 20260502235536 | 71 | 157 | 4.0 | 10.0 | 0.00 | 0.00 | 0.00 | 13 | 1019.0 |
| 20260502235436 | 71 | 88 | 4.0 | 10.0 | 0.00 | 0.00 | 0.00 | 11 | 1019.0 |
| 20260502235335 | 72 | 96 | 4.0 | 10.0 | 0.00 | 0.00 | 0.00 | 12 | 1019.0 |
| 20260502235236 | 72 | 96 | 4.0 | 10.0 | 0.00 | 0.00 | 0.00 | 10 | 1019.0 |
| 20260502235136 | 72 | 81 | 4.0 | 10.0 | 0.00 | 0.00 | 0.00 | 10 | 1018.8 |
| 20260502235039 | 72 | 132 | 4.0 | 8.0 | 0.00 | 0.00 | 0.00 | 10 | 1019.0 |
| 20260502234832 | 72 | 98 | 4.0 | 8.0 | 0.00 | 0.00 | 0.00 | 10 | 1019.0 |
| 20260502234740 | 72 | 87 | 4.0 | 8.0 | 0.00 | 0.00 | 0.00 | 10 | 1019.0 |
| 20260502234734 | 72 | 98 | 4.0 | 8.0 | 0.00 | 0.00 | 0.00 | 11 | 1019.0 |
| 20260502234535 | 72 | 132 | 4.0 | 8.0 | 0.00 | 0.00 | 0.00 | 11 | 1019.0 |
| 20260502234329 | 72 | 128 | 4.0 | 8.0 | 0.00 | 0.00 | 0.00 | 11 | 1019.1 |
| 20260502234227 | 72 | 142 | 4.0 | 8.0 | 0.00 | 0.00 | 0.00 | 11 | 1019.1 |
| 20260502234123 | 71 | 150 | 4.0 | 8.0 | 0.00 | 0.00 | 0.00 | 11 | 1019.0 |
| 20260502234017 | 71 | 144 | 5.0 | 9.0 | 0.00 | 0.00 | 0.00 | 10 | 1019.0 |
| 20260502233918 | 71 | 126 | 5.0 | 10.0 | 0.00 | 0.00 | 0.00 | 11 | 1019.0 |
| 20260502233825 | 71 | 129 | 5.0 | 10.0 | 0.00 | 0.00 | 0.00 | 10 | 1019.1 |
| 20260502233617 | 71 | 104 | 5.0 | 12.0 | 0.00 | 0.00 | 0.00 | 11 | 1019.0 |
| 20260502233513 | 71 | 38 | 6.0 | 12.0 | 0.00 | 0.00 | 0.00 | 11 | 1019.0 |
| 20260502233411 | 71 | 15 | 6.0 | 12.0 | 0.00 | 0.00 | 0.00 | 10 | 1019.0 |
| 20260502233320 | 71 | 54 | 6.0 | 12.0 | 0.00 | 0.00 | 0.00 | 11 | 1019.0 |
| 20260502233111 | 71 | 34 | 6.0 | 12.0 | 0.00 | 0.00 | 0.00 | 9 | 1019.0 |
| 20260502233005 | 71 | 49 | 6.0 | 12.0 | 0.00 | 0.00 | 0.00 | 10 | 1019.1 |
| 20260502232906 | 71 | 39 | 5.0 | 12.0 | 0.00 | 0.00 | 0.00 | 10 | 1019.1 |
| 20260502232806 | 71 | 34 | 5.0 | 12.0 | 0.00 | 0.00 | 0.00 | 10 | 1019.1 |
| 20260502232706 | 71 | 47 | 5.0 | 12.0 | 0.00 | 0.00 | 0.00 | 10 | 1019.1 |
| 20260502232605 | 72 | 71 | 5.0 | 11.0 | 0.00 | 0.00 | 0.00 | 12 | 1019.1 |
| 20260502232510 | 72 | 69 | 5.0 | 10.0 | 0.00 | 0.00 | 0.00 | 11 | 1019.1 |
| 20260502232304 | 72 | 84 | 5.0 | 10.0 | 0.00 | 0.00 | 0.00 | 11 | 1019.1 |
| 20260502232203 | 72 | 96 | 4.0 | 9.0 | 0.00 | 0.00 | 0.00 | 11 | 1019.1 |
| 20260502232101 | 72 | 113 | 4.0 | 9.0 | 0.00 | 0.00 | 0.00 | 11 | 1019.1 |
| 20260502231854 | 72 | 34 | 4.0 | 9.0 | 0.00 | 0.00 | 0.00 | 11 | 1019.1 |
| 20260502231754 | 72 | 74 | 3.0 | 9.0 | 0.00 | 0.00 | 0.00 | 10 | 1019.1 |
| 20260502231704 | 72 | 62 | 3.0 | 9.0 | 0.00 | 0.00 | 0.00 | 10 | 1019.1 |
| 20260502231553 | 73 | 67 | 3.0 | 9.0 | 0.00 | 0.00 | 0.00 | 11 | 1019.1 |
| 20260502231454 | 73 | 55 | 3.0 | 9.0 | 0.00 | 0.00 | 0.00 | 11 | 1019.1 |
| 20260502231247 | 73 | 9 | 3.0 | 9.0 | 0.00 | 0.00 | 0.00 | 9 | 1019.2 |
| 20260502231147 | 73 | 9 | 3.0 | 9.0 | 0.00 | 0.00 | 0.00 | 10 | 1019.2 |
| 20260502231048 | 73 | 60 | 3.0 | 9.0 | 0.00 | 0.00 | 0.00 | 11 | 1019.2 |
| 20260502230945 | 73 | 59 | 3.0 | 9.0 | 0.00 | 0.00 | 0.00 | 10 | 1019.1 |
| 20260502230846 | 73 | 72 | 4.0 | 9.0 | 0.00 | 0.00 | 0.00 | 10 | 1019.1 |
| 20260502230746 | 72 | 72 | 5.0 | 11.0 | 0.00 | 0.00 | 0.00 | 10 | 1019.2 |
| 20260502230644 | 72 | 72 | 5.0 | 12.0 | 0.00 | 0.00 | 0.00 | 11 | 1019.2 |
| 20260502230545 | 72 | 31 | 5.0 | 12.0 | 0.00 | 0.00 | 0.00 | 12 | 1019.1 |
| 20260502230336 | 72 | 74 | 4.0 | 12.0 | 0.00 | 0.00 | 0.00 | 10 | 1019.2 |
| 20260502230236 | 72 | 108 | 5.0 | 12.0 | 0.00 | 0.00 | 0.00 | 10 | 1019.2 |
| 20260502230136 | 72 | 336 | 5.0 | 12.0 | 0.00 | 0.00 | 0.00 | 11 | 1019.2 |
| 20260502230035 | 72 | 53 | 5.0 | 12.0 | 0.00 | 0.00 | 0.00 | 10 | 1019.2 |
| 20260502225929 | 73 | 44 | 5.0 | 12.0 | 0.00 | 0.00 | 0.00 | 10 | 1019.2 |
| 20260502225829 | 73 | 71 | 5.0 | 12.0 | 0.00 | 0.00 | 0.00 | 10 | 1019.2 |
| 20260502225748 | 73 | 81 | 4.0 | 12.0 | 0.00 | 0.00 | 0.00 | 11 | 1019.3 |
| 20260502225742 | 72 | 92 | 4.0 | 10.0 | 0.00 | 0.00 | 0.00 | 12 | 1019.3 |
| 20260502225338 | 72 | 101 | 5.0 | 11.0 | 0.00 | 0.00 | 0.00 | 11 | 1019.2 |
| 20260502225031 | 72 | 36 | 6.0 | 11.0 | 0.00 | 0.00 | 0.00 | 10 | 1019.2 |
| 20260502225023 | 72 | 41 | 6.0 | 11.0 | 0.00 | 0.00 | 0.00 | 10 | 1019.2 |
| 20260502224924 | 72 | 58 | 7.0 | 15.0 | 0.00 | 0.00 | 0.00 | 11 | 1019.2 |
| 20260502224717 | 72 | 40 | 7.0 | 15.0 | 0.00 | 0.00 | 0.00 | 10 | 1019.3 |
| 20260502224617 | 72 | 88 | 6.0 | 15.0 | 0.00 | 0.00 | 0.00 | 10 | 1019.3 |
| 20260502224529 | 72 | 84 | 6.0 | 15.0 | 0.00 | 0.00 | 0.00 | 10 | 1019.3 |
| 20260502224517 | 72 | 103 | 6.0 | 15.0 | 0.00 | 0.00 | 0.00 | 10 | 1019.3 |
| 20260502224413 | 72 | 96 | 6.0 | 15.0 | 0.00 | 0.00 | 0.00 | 10 | 1019.4 |
| 20260502224312 | 73 | 92 | 6.0 | 15.0 | 0.00 | 0.00 | 0.00 | 10 | 1019.4 |
| 20260502224211 | 73 | 99 | 5.0 | 15.0 | 0.00 | 0.00 | 0.00 | 10 | 1019.3 |
| 20260502224124 | 73 | 96 | 5.0 | 15.0 | 0.00 | 0.00 | 0.00 | 10 | 1019.4 |
| 20260502224117 | 73 | 55 | 5.0 | 15.0 | 0.00 | 0.00 | 0.00 | 10 | 1019.3 |
| 20260502223908 | 74 | 65 | 5.0 | 12.0 | 0.00 | 0.00 | 0.00 | 10 | 1019.3 |
| 20260502223808 | 74 | 103 | 5.0 | 11.0 | 0.00 | 0.00 | 0.00 | 10 | 1019.4 |
| 20260502223744 | 74 | 71 | 5.0 | 11.0 | 0.00 | 0.00 | 0.00 | 10 | 1019.3 |
| 20260502223506 | 74 | 67 | 5.0 | 11.0 | 0.00 | 0.00 | 0.00 | 11 | 1019.4 |
| 20260502223401 | 74 | 41 | 5.0 | 11.0 | 0.00 | 0.00 | 0.00 | 12 | 1019.4 |
| 20260502223259 | 74 | 69 | 5.0 | 11.0 | 0.00 | 0.00 | 0.00 | 11 | 1019.4 |
| 20260502223200 | 74 | 13 | 5.0 | 11.0 | 0.00 | 0.00 | 0.00 | 11 | 1019.4 |
| 20260502223113 | 74 | 113 | 4.0 | 11.0 | 0.00 | 0.00 | 0.00 | 11 | 1019.4 |
| 20260502223106 | 74 | 109 | 4.0 | 11.0 | 0.00 | 0.00 | 0.00 | 11 | 1019.4 |
| 20260502222854 | 74 | 105 | 4.0 | 11.0 | 0.00 | 0.00 | 0.00 | 11 | 1019.4 |
| 20260502222754 | 73 | 70 | 3.0 | 9.0 | 0.00 | 0.00 | 0.00 | 11 | 1019.4 |
| 20260502222653 | 73 | 61 | 4.0 | 10.0 | 0.00 | 0.00 | 0.00 | 11 | 1019.4 |
| 20260502222554 | 73 | 148 | 4.0 | 10.0 | 0.00 | 0.00 | 0.00 | 11 | 1019.4 |
| 20260502222529 | 73 | 165 | 4.0 | 10.0 | 0.00 | 0.00 | 0.00 | 13 | 1019.4 |
| 20260502222455 | 73 | 157 | 4.0 | 10.0 | 0.00 | 0.00 | 0.00 | 13 | 1019.4 |
| 20260502222348 | 72 | 142 | 4.0 | 10.0 | 0.00 | 0.00 | 0.00 | 12 | 1019.6 |
| 20260502222247 | 72 | 29 | 4.0 | 10.0 | 0.00 | 0.00 | 0.00 | 11 | 1019.4 |
| 20260502222147 | 72 | 112 | 4.0 | 10.0 | 0.00 | 0.00 | 0.00 | 10 | 1019.4 |
| 20260502222135 | 73 | 76 | 4.0 | 10.0 | 0.00 | 0.00 | 0.00 | 11 | 1019.6 |
| 20260502221948 | 73 | 88 | 5.0 | 10.0 | 0.00 | 0.00 | 0.00 | 10 | 1019.4 |
| 20260502221842 | 73 | 65 | 4.0 | 10.0 | 0.00 | 0.00 | 0.00 | 9 | 1019.6 |
| 20260502221749 | 74 | 86 | 4.0 | 10.0 | 0.00 | 0.00 | 0.00 | 10 | 1019.6 |
| 20260502221542 | 74 | 143 | 4.0 | 9.0 | 0.00 | 0.00 | 0.00 | 12 | 1019.4 |
| 20260502221529 | 74 | 134 | 4.0 | 9.0 | 0.00 | 0.00 | 0.00 | 12 | 1019.4 |
| 20260502221442 | 74 | 336 | 4.0 | 9.0 | 0.00 | 0.00 | 0.00 | 11 | 1019.6 |
| 20260502221338 | 74 | 87 | 4.0 | 9.0 | 0.00 | 0.00 | 0.00 | 10 | 1019.6 |
| 20260502221237 | 74 | 69 | 4.0 | 9.0 | 0.00 | 0.00 | 0.00 | 10 | 1019.6 |
| 20260502221137 | 75 | 64 | 4.0 | 11.0 | 0.00 | 0.00 | 0.00 | 11 | 1019.7 |
| 20260502221038 | 74 | 132 | 4.0 | 11.0 | 0.00 | 0.00 | 0.00 | 11 | 1019.7 |
| 20260502221028 | 74 | 138 | 4.0 | 11.0 | 0.00 | 0.00 | 0.00 | 11 | 1019.7 |
| 20260502220935 | 74 | 150 | 4.0 | 11.0 | 0.00 | 0.00 | 0.00 | 11 | 1019.7 |
| 20260502220830 | 74 | 178 | 4.0 | 11.0 | 0.00 | 0.00 | 0.00 | 11 | 1019.7 |
| 20260502220730 | 74 | 178 | 5.0 | 11.0 | 0.00 | 0.00 | 0.00 | 12 | 1019.7 |
| 20260502220641 | 74 | 177 | 5.0 | 11.0 | 0.00 | 0.00 | 0.00 | 13 | 1019.8 |
| 20260502220634 | 74 | 204 | 5.0 | 11.0 | 0.00 | 0.00 | 0.00 | 12 | 1019.8 |
| 20260502220325 | 73 | 144 | 5.0 | 11.0 | 0.00 | 0.00 | 0.00 | 12 | 1019.8 |
| 20260502220226 | 73 | 121 | 5.0 | 11.0 | 0.00 | 0.00 | 0.00 | 12 | 1019.8 |
| 20260502220144 | 73 | 117 | 5.0 | 11.0 | 0.00 | 0.00 | 0.00 | 14 | 1019.8 |
| 20260502220136 | 73 | 149 | 5.0 | 11.0 | 0.00 | 0.00 | 0.00 | 11 | 1019.8 |
| 20260502215818 | 73 | 83 | 5.0 | 11.0 | 0.00 | 0.00 | 0.00 | 13 | 1019.9 |
| 20260502215718 | 74 | 76 | 5.0 | 11.0 | 0.00 | 0.00 | 0.00 | 13 | 1019.8 |
| 20260502215618 | 73 | 78 | 5.0 | 11.0 | 0.00 | 0.00 | 0.00 | 12 | 1019.9 |
| 20260502215524 | 73 | 123 | 5.0 | 11.0 | 0.00 | 0.00 | 0.00 | 13 | 1019.9 |
| 20260502215517 | 73 | 94 | 5.0 | 11.0 | 0.00 | 0.00 | 0.00 | 13 | 1019.9 |
| 20260502215417 | 73 | 213 | 5.0 | 14.0 | 0.00 | 0.00 | 0.00 | 12 | 1019.9 |
| 20260502215321 | 73 | 111 | 5.0 | 14.0 | 0.00 | 0.00 | 0.00 | 12 | 1019.9 |
| 20260502215112 | 72 | 109 | 6.0 | 14.0 | 0.00 | 0.00 | 0.00 | 12 | 1019.9 |
| 20260502215025 | 72 | 123 | 6.0 | 14.0 | 0.00 | 0.00 | 0.00 | 12 | 1019.9 |
| 20260502215012 | 72 | 108 | 6.0 | 14.0 | 0.00 | 0.00 | 0.00 | 12 | 1019.9 |
| 20260502214911 | 72 | 142 | 7.0 | 14.0 | 0.00 | 0.00 | 0.00 | 12 | 1020.0 |
| 20260502214806 | 72 | 144 | 7.0 | 14.0 | 0.00 | 0.00 | 0.00 | 13 | 1020.0 |
| 20260502214705 | 72 | 122 | 7.0 | 14.0 | 0.00 | 0.00 | 0.00 | 12 | 1020.0 |
| 20260502214605 | 72 | 59 | 7.0 | 14.0 | 0.00 | 0.00 | 0.00 | 15 | 1020.0 |
| 20260502214525 | 72 | 74 | 7.0 | 14.0 | 0.00 | 0.00 | 0.00 | 13 | 1020.0 |
| 20260502214513 | 72 | 59 | 7.0 | 12.0 | 0.00 | 0.00 | 0.00 | 13 | 1020.0 |
| 20260502214259 | 72 | 126 | 7.0 | 12.0 | 0.00 | 0.00 | 0.00 | 13 | 1020.2 |
| 20260502214240 | 72 | 57 | 6.0 | 12.0 | 0.00 | 0.00 | 0.00 | 11 | 1020.0 |
| 20260502214000 | 72 | 36 | 5.0 | 12.0 | 0.00 | 0.00 | 0.00 | 12 | 1020.3 |
| 20260502213859 | 72 | 50 | 4.0 | 11.0 | 0.00 | 0.00 | 0.00 | 12 | 1020.3 |
| 20260502213800 | 72 | 60 | 3.0 | 11.0 | 0.00 | 0.00 | 0.00 | 13 | 1020.4 |
| 20260502213553 | 72 | 58 | 3.0 | 11.0 | 0.00 | 0.00 | 0.00 | 13 | 1020.4 |
| 20260502213524 | 72 | 62 | 4.0 | 11.0 | 0.00 | 0.00 | 0.00 | 13 | 1020.4 |
| 20260502213500 | 72 | 85 | 4.0 | 11.0 | 0.00 | 0.00 | 0.00 | 14 | 1020.4 |
| 20260502213252 | 71 | 97 | 5.0 | 11.0 | 0.00 | 0.00 | 0.00 | 13 | 1020.4 |
| 20260502213151 | 71 | 207 | 5.0 | 13.0 | 0.00 | 0.00 | 0.00 | 13 | 1020.5 |
| 20260502213131 | 71 | 94 | 6.0 | 13.0 | 0.00 | 0.00 | 0.00 | 14 | 1020.5 |
| 20260502212952 | 72 | 341 | 6.0 | 13.0 | 0.00 | 0.00 | 0.00 | 12 | 1020.5 |
| 20260502212851 | 72 | 55 | 6.0 | 13.0 | 0.00 | 0.00 | 0.00 | 11 | 1020.5 |
| 20260502212749 | 72 | 96 | 6.0 | 13.0 | 0.00 | 0.00 | 0.00 | 12 | 1020.5 |
| 20260502212649 | 72 | 93 | 6.0 | 13.0 | 0.00 | 0.00 | 0.00 | 12 | 1020.6 |
| 20260502212549 | 72 | 84 | 6.0 | 13.0 | 0.00 | 0.00 | 0.00 | 13 | 1020.6 |
| 20260502212525 | 72 | 77 | 6.0 | 13.0 | 0.00 | 0.00 | 0.00 | 13 | 1020.6 |
| 20260502212449 | 72 | 89 | 5.0 | 13.0 | 0.00 | 0.00 | 0.00 | 12 | 1020.6 |
| 20260502212350 | 72 | 44 | 5.0 | 13.0 | 0.00 | 0.00 | 0.00 | 13 | 1020.5 |
| 20260502212249 | 72 | 131 | 5.0 | 13.0 | 0.00 | 0.00 | 0.00 | 14 | 1020.6 |
| 20260502212149 | 72 | 166 | 5.0 | 10.0 | 0.00 | 0.00 | 0.00 | 12 | 1020.6 |
| 20260502212048 | 72 | 121 | 5.0 | 14.0 | 0.00 | 0.00 | 0.00 | 14 | 1020.6 |
| 20260502212025 | 72 | 144 | 5.0 | 14.0 | 0.00 | 0.00 | 0.00 | 12 | 1020.6 |
| 20260502211947 | 72 | 60 | 5.0 | 14.0 | 0.00 | 0.00 | 0.00 | 13 | 1020.7 |
| 20260502211848 | 72 | 140 | 5.0 | 14.0 | 0.00 | 0.00 | 0.00 | 11 | 1020.6 |
| 20260502211756 | 72 | 94 | 5.0 | 14.0 | 0.00 | 0.00 | 0.00 | 12 | 1020.7 |
| 20260502211547 | 72 | 112 | 5.0 | 14.0 | 0.00 | 0.00 | 0.00 | 14 | 1020.6 |
| 20260502211525 | 72 | 119 | 5.0 | 14.0 | 0.00 | 0.00 | 0.00 | 12 | 1020.6 |
| 20260502211447 | 72 | 98 | 5.0 | 14.0 | 0.00 | 0.00 | 0.00 | 12 | 1020.7 |
| 20260502211354 | 72 | 90 | 5.0 | 14.0 | 0.00 | 0.00 | 0.00 | 14 | 1020.7 |
| 20260502211148 | 72 | 67 | 5.0 | 14.0 | 0.00 | 0.00 | 0.00 | 13 | 1020.7 |
| 20260502211047 | 72 | 64 | 5.0 | 14.0 | 0.00 | 0.00 | 0.00 | 13 | 1020.7 |
| 20260502211024 | 72 | 98 | 5.0 | 14.0 | 0.00 | 0.00 | 0.00 | 13 | 1020.7 |
| 20260502210947 | 72 | 127 | 5.0 | 14.0 | 0.00 | 0.00 | 0.00 | 14 | 1020.7 |
| 20260502210900 | 72 | 82 | 6.0 | 14.0 | 0.00 | 0.00 | 0.00 | 12 | 1020.7 |
| 20260502210631 | 72 | 79 | 6.0 | 14.0 | 0.00 | 0.00 | 0.00 | 12 | 1020.9 |
| 20260502210448 | 72 | 155 | 6.0 | 14.0 | 0.00 | 0.00 | 0.00 | 13 | 1020.9 |
| 20260502210348 | 72 | 128 | 6.0 | 14.0 | 0.00 | 0.00 | 0.00 | 14 | 1020.9 |
| 20260502210255 | 71 | 131 | 6.0 | 14.0 | 0.00 | 0.00 | 0.00 | 13 | 1020.9 |
| 20260502210048 | 71 | 131 | 5.0 | 14.0 | 0.00 | 0.00 | 0.00 | 15 | 1021.0 |
| 20260502210025 | 71 | 115 | 5.0 | 13.0 | 0.00 | 0.00 | 0.00 | 15 | 1021.0 |
| 20260502205947 | 71 | 109 | 5.0 | 13.0 | 0.00 | 0.00 | 0.00 | 13 | 1021.0 |
| 20260502205847 | 71 | 88 | 5.0 | 13.0 | 0.00 | 0.00 | 0.00 | 13 | 1020.9 |
| 20260502205749 | 71 | 97 | 5.0 | 13.0 | 0.00 | 0.00 | 0.00 | 13 | 1021.0 |
| 20260502205647 | 72 | 61 | 5.0 | 13.0 | 0.00 | 0.00 | 0.00 | 13 | 1021.0 |
| 20260502205547 | 71 | 160 | 5.0 | 13.0 | 0.00 | 0.00 | 0.00 | 14 | 1021.0 |
| 20260502205524 | 71 | 137 | 5.0 | 13.0 | 0.00 | 0.00 | 0.00 | 14 | 1021.0 |